Wetterdaten: Sonntag, 02.04.2023
Datum Zeit Temp. Aussen Temp. o. S. Temp +5cm Feuchte Auss Luftdruck Regen Sonnenschein Regendauer Solar Windben Empfang
02.04.2023 00:00 8,5 C 7,8 C 5,6 C 98 % 1006,4 hPa 0,0 l/m 0 min 0 min 0 W/m 19,3 km/h (3 Bft) 100,00 %
02.04.2023 00:02 8,5 C 7,8 C 5,6 C 98 % 1006,5 hPa 0,0 l/m 0 min 0 min 0 W/m 3,2 km/h (1 Bft) 14,29 %
02.04.2023 00:04 8,4 C 7,8 C 5,6 C 98 % 1006,5 hPa 0,0 l/m 0 min 0 min 0 W/m 16,1 km/h (3 Bft) 75,76 %
02.04.2023 00:07 8,4 C 7,8 C 5,6 C 98 % 1006,6 hPa 0,0 l/m 0 min 0 min 0 W/m 16,1 km/h (3 Bft) 100,00 %
02.04.2023 00:08 8,4 C 7,8 C 5,6 C 98 % 1006,6 hPa 0,0 l/m 0 min 0 min 0 W/m 6,4 km/h (2 Bft) 100,00 %
02.04.2023 00:12 8,3 C 7,8 C 5,6 C 98 % 1006,6 hPa 0,0 l/m 0 min 0 min 0 W/m 16,1 km/h (3 Bft) 100,00 %
02.04.2023 00:14 8,3 C 7,8 C 5,6 C 98 % 1006,7 hPa 0,0 l/m 0 min 0 min 0 W/m 9,7 km/h (2 Bft) 100,00 %
02.04.2023 00:16 8,3 C 7,8 C 5,6 C 98 % 1006,8 hPa 0,0 l/m 0 min 0 min 0 W/m 19,3 km/h (3 Bft) 100,00 %
02.04.2023 00:18 8,3 C 7,8 C 5,6 C 98 % 1006,8 hPa 0,0 l/m 0 min 0 min 0 W/m 16,1 km/h (3 Bft) 100,00 %
02.04.2023 00:20 8,3 C 7,8 C 5,0 C 98 % 1006,8 hPa 0,0 l/m 0 min 0 min 0 W/m 12,9 km/h (3 Bft) 97,87 %
02.04.2023 00:22 8,2 C 7,8 C 5,0 C 98 % 1006,9 hPa 0,0 l/m 0 min 0 min 0 W/m 16,1 km/h (3 Bft) 95,74 %
02.04.2023 00:24 8,2 C 7,2 C 5,0 C 98 % 1006,9 hPa 0,0 l/m 0 min 0 min 0 W/m 16,1 km/h (3 Bft) 95,74 %
02.04.2023 00:26 8,2 C 7,2 C 5,0 C 98 % 1006,9 hPa 0,0 l/m 0 min 0 min 0 W/m 16,1 km/h (3 Bft) 95,65 %
02.04.2023 00:28 8,1 C 7,2 C 5,0 C 98 % 1007,0 hPa 0,0 l/m 0 min 0 min 0 W/m 25,7 km/h (4 Bft) 97,87 %
02.04.2023 00:30 8,1 C 7,2 C 5,0 C 98 % 1007,0 hPa 0,0 l/m 0 min 2 min 0 W/m 9,7 km/h (2 Bft) 97,87 %
02.04.2023 00:32 8,1 C 7,2 C 5,0 C 98 % 1007,0 hPa 0,0 l/m 0 min 2 min 0 W/m 19,3 km/h (3 Bft) 100,00 %
02.04.2023 00:34 8,1 C 7,2 C 5,0 C 98 % 1007,1 hPa 0,0 l/m 0 min 0 min 0 W/m 19,3 km/h (3 Bft) 97,87 %
02.04.2023 00:36 8,1 C 7,2 C 5,0 C 98 % 1007,1 hPa 0,0 l/m 0 min 0 min 0 W/m 22,5 km/h (4 Bft) 97,87 %
02.04.2023 00:38 8,0 C 7,2 C 5,0 C 98 % 1007,0 hPa 0,0 l/m 0 min 0 min 0 W/m 19,3 km/h (3 Bft) 97,87 %
02.04.2023 00:40 7,9 C 7,2 C 5,0 C 98 % 1007,2 hPa 0,0 l/m 0 min 0 min 0 W/m 19,3 km/h (3 Bft) 97,83 %
02.04.2023 00:42 7,9 C 7,2 C 5,0 C 98 % 1007,2 hPa 0,0 l/m 0 min 0 min 0 W/m 12,9 km/h (3 Bft) 97,87 %
02.04.2023 00:44 7,9 C 7,2 C 5,0 C 98 % 1007,2 hPa 0,0 l/m 0 min 2 min 0 W/m 9,7 km/h (2 Bft) 95,74 %
02.04.2023 00:46 7,9 C 7,2 C 5,0 C 98 % 1007,3 hPa 0,2 l/m 0 min 2 min 0 W/m 19,3 km/h (3 Bft) 97,92 %
02.04.2023 00:48 7,8 C 7,2 C 5,0 C 98 % 1007,3 hPa 0,0 l/m 0 min 2 min 0 W/m 16,1 km/h (3 Bft) 95,74 %
02.04.2023 00:50 7,8 C 7,2 C 5,0 C 98 % 1007,3 hPa 0,0 l/m 0 min 2 min 0 W/m 12,9 km/h (3 Bft) 93,62 %
02.04.2023 00:52 7,8 C 7,2 C 5,0 C 98 % 1007,3 hPa 0,0 l/m 0 min 0 min 0 W/m 16,1 km/h (3 Bft) 97,83 %
02.04.2023 00:54 7,8 C 7,2 C 5,0 C 98 % 1007,5 hPa 0,0 l/m 0 min 0 min 0 W/m 19,3 km/h (3 Bft) 97,92 %
02.04.2023 00:56 7,8 C 7,2 C 5,0 C 98 % 1007,5 hPa 0,0 l/m 0 min 0 min 0 W/m 19,3 km/h (3 Bft) 97,92 %
02.04.2023 00:58 7,7 C 7,2 C 5,0 C 98 % 1007,5 hPa 0,0 l/m 0 min 0 min 0 W/m 16,1 km/h (3 Bft) 97,87 %
02.04.2023 01:00 7,7 C 7,2 C 5,0 C 98 % 1007,5 hPa 0,0 l/m 0 min 0 min 0 W/m 16,1 km/h (3 Bft) 93,48 %
02.04.2023 01:02 7,7 C 7,2 C 5,0 C 98 % 1007,6 hPa 0,0 l/m 0 min 0 min 0 W/m 25,7 km/h (4 Bft) 95,74 %
02.04.2023 01:04 7,7 C 7,2 C 5,0 C 98 % 1007,6 hPa 0,0 l/m 0 min 0 min 0 W/m 19,3 km/h (3 Bft) 91,67 %
02.04.2023 01:06 7,7 C 7,2 C 5,0 C 98 % 1007,7 hPa 0,0 l/m 0 min 0 min 0 W/m 19,3 km/h (3 Bft) 93,62 %
02.04.2023 01:08 7,6 C 7,2 C 5,0 C 98 % 1007,7 hPa 0,0 l/m 0 min 0 min 0 W/m 16,1 km/h (3 Bft) 95,74 %
02.04.2023 01:10 7,6 C 6,7 C 5,0 C 98 % 1007,8 hPa 0,0 l/m 0 min 0 min 0 W/m 25,7 km/h (4 Bft) 95,74 %
02.04.2023 01:12 7,6 C 6,7 C 5,0 C 98 % 1007,8 hPa 0,0 l/m 0 min 0 min 0 W/m 38,6 km/h (5 Bft) 93,62 %
02.04.2023 01:14 7,6 C 6,7 C 4,4 C 98 % 1007,8 hPa 0,0 l/m 0 min 0 min 0 W/m 16,1 km/h (3 Bft) 95,65 %
02.04.2023 01:16 7,6 C 6,7 C 4,4 C 98 % 1007,9 hPa 0,0 l/m 0 min 0 min 0 W/m 16,1 km/h (3 Bft) 93,62 %
02.04.2023 01:18 7,5 C 6,7 C 4,4 C 98 % 1007,9 hPa 0,0 l/m 0 min 0 min 0 W/m 16,1 km/h (3 Bft) 95,74 %
02.04.2023 01:20 7,5 C 6,7 C 4,4 C 98 % 1008,0 hPa 0,0 l/m 0 min 0 min 0 W/m 12,9 km/h (3 Bft) 94,74 %
02.04.2023 01:22 7,5 C 6,7 C 4,4 C 98 % 1008,0 hPa 0,0 l/m 0 min 0 min 0 W/m 22,5 km/h (4 Bft) 97,87 %
02.04.2023 01:24 7,5 C 6,7 C 4,4 C 98 % 1008,0 hPa 0,0 l/m 0 min 0 min 0 W/m 16,1 km/h (3 Bft) 97,87 %
02.04.2023 01:26 7,5 C 6,7 C 4,4 C 98 % 1008,1 hPa 0,0 l/m 0 min 0 min 0 W/m 12,9 km/h (3 Bft) 95,74 %
02.04.2023 01:28 7,5 C 6,7 C 4,4 C 98 % 1008,1 hPa 0,0 l/m 0 min 0 min 0 W/m 12,9 km/h (3 Bft) 97,87 %
02.04.2023 01:30 7,5 C 6,7 C 4,4 C 98 % 1008,2 hPa 0,0 l/m 0 min 0 min 0 W/m 16,1 km/h (3 Bft) 93,48 %
02.04.2023 01:32 7,5 C 6,7 C 4,4 C 98 % 1008,2 hPa 0,0 l/m 0 min 0 min 0 W/m 16,1 km/h (3 Bft) 100,00 %
02.04.2023 01:34 7,4 C 6,7 C 4,4 C 98 % 1008,3 hPa 0,0 l/m 0 min 0 min 0 W/m 12,9 km/h (3 Bft) 100,00 %
02.04.2023 01:36 7,4 C 6,7 C 4,4 C 98 % 1008,3 hPa 0,0 l/m 0 min 0 min 0 W/m 22,5 km/h (4 Bft) 100,00 %
02.04.2023 01:38 7,4 C 6,7 C 4,4 C 98 % 1008,3 hPa 0,0 l/m 0 min 0 min 0 W/m 22,5 km/h (4 Bft) 100,00 %
02.04.2023 01:40 7,4 C 6,7 C 4,4 C 98 % 1008,3 hPa 0,0 l/m 0 min 0 min 0 W/m 19,3 km/h (3 Bft) 97,87 %
02.04.2023 01:42 7,3 C 6,7 C 4,4 C 98 % 1008,4 hPa 0,0 l/m 0 min 0 min 0 W/m 22,5 km/h (4 Bft) 97,87 %
02.04.2023 01:44 7,3 C 6,7 C 4,4 C 98 % 1008,4 hPa 0,2 l/m 0 min 0 min 0 W/m 22,5 km/h (4 Bft) 100,00 %
02.04.2023 01:46 7,3 C 6,7 C 4,4 C 98 % 1008,5 hPa 0,0 l/m 0 min 0 min 0 W/m 19,3 km/h (3 Bft) 97,87 %
02.04.2023 01:48 7,3 C 6,7 C 4,4 C 98 % 1008,5 hPa 0,0 l/m 0 min 0 min 0 W/m 19,3 km/h (3 Bft) 97,87 %
02.04.2023 01:50 7,3 C 6,7 C 4,4 C 98 % 1008,5 hPa 0,0 l/m 0 min 0 min 0 W/m 12,9 km/h (3 Bft) 87,23 %
02.04.2023 01:52 7,3 C 6,7 C 4,4 C 98 % 1008,6 hPa 0,0 l/m 0 min 0 min 0 W/m 19,3 km/h (3 Bft) 89,36 %
02.04.2023 01:54 7,3 C 6,7 C 4,4 C 98 % 1008,6 hPa 0,0 l/m 0 min 0 min 0 W/m 19,3 km/h (3 Bft) 44,74 %
02.04.2023 01:56 7,3 C 6,7 C 4,4 C 98 % 1008,7 hPa 0,0 l/m 0 min 0 min 0 W/m 16,1 km/h (3 Bft) 89,13 %
02.04.2023 01:58 7,3 C 6,7 C 4,4 C 98 % 1008,8 hPa 0,0 l/m 0 min 0 min 0 W/m 9,7 km/h (2 Bft) 75,51 %
02.04.2023 02:00 7,2 C 6,7 C 4,4 C 98 % 1008,8 hPa 0,0 l/m 0 min 0 min 0 W/m 12,9 km/h (3 Bft) 85,11 %
02.04.2023 02:02 7,2 C 6,7 C 4,4 C 98 % 1008,9 hPa 0,0 l/m 0 min 0 min 0 W/m 16,1 km/h (3 Bft) 93,62 %
02.04.2023 02:04 7,2 C 6,7 C 4,4 C 98 % 1008,9 hPa 0,0 l/m 0 min 0 min 0 W/m 22,5 km/h (4 Bft) 74,47 %
02.04.2023 02:06 7,2 C 6,7 C 4,4 C 98 % 1009,0 hPa 0,0 l/m 0 min 0 min 0 W/m 22,5 km/h (4 Bft) 94,83 %
02.04.2023 02:08 7,1 C 6,7 C 4,4 C 98 % 1009,0 hPa 0,0 l/m 0 min 0 min 0 W/m 25,7 km/h (4 Bft) 88,57 %
02.04.2023 02:10 7,1 C 6,7 C 4,4 C 98 % 1009,0 hPa 0,0 l/m 0 min 0 min 0 W/m 16,1 km/h (3 Bft) 91,49 %
02.04.2023 02:12 7,1 C 6,1 C 4,4 C 98 % 1009,1 hPa 0,0 l/m 0 min 0 min 0 W/m 19,3 km/h (3 Bft) 82,98 %
02.04.2023 02:14 7,0 C 6,1 C 3,9 C 98 % 1009,2 hPa 0,0 l/m 0 min 0 min 0 W/m 25,7 km/h (4 Bft) 84,78 %
02.04.2023 02:16 6,9 C 6,1 C 3,9 C 98 % 1009,1 hPa 0,0 l/m 0 min 0 min 0 W/m 22,5 km/h (4 Bft) 77,08 %
02.04.2023 02:18 6,9 C 6,1 C 3,9 C 98 % 1009,2 hPa 0,0 l/m 0 min 0 min 0 W/m 29,0 km/h (5 Bft) 85,11 %
02.04.2023 02:20 6,9 C 6,1 C 3,9 C 98 % 1009,2 hPa 0,0 l/m 0 min 0 min 0 W/m 25,7 km/h (4 Bft) 93,62 %
02.04.2023 02:22 6,9 C 6,1 C 3,9 C 98 % 1009,2 hPa 0,0 l/m 0 min 0 min 0 W/m 16,1 km/h (3 Bft) 78,72 %
02.04.2023 02:24 6,8 C 6,1 C 3,9 C 98 % 1009,3 hPa 0,0 l/m 0 min 0 min 0 W/m 22,5 km/h (4 Bft) 87,23 %
02.04.2023 02:26 6,8 C 6,1 C 3,9 C 98 % 1009,3 hPa 0,0 l/m 0 min 0 min 0 W/m 12,9 km/h (3 Bft) 65,96 %
02.04.2023 02:28 6,8 C 6,1 C 3,9 C 98 % 1009,3 hPa 0,0 l/m 0 min 0 min 0 W/m 22,5 km/h (4 Bft) 60,87 %
02.04.2023 02:30 6,8 C 6,1 C 3,9 C 98 % 1009,3 hPa 0,0 l/m 0 min 0 min 0 W/m 19,3 km/h (3 Bft) 53,19 %
02.04.2023 02:32 6,8 C 6,1 C 3,9 C 98 % 1009,4 hPa 0,0 l/m 0 min 0 min 0 W/m 9,7 km/h (2 Bft) 34,04 %
02.04.2023 02:34 6,8 C 6,1 C 3,9 C 98 % 1009,5 hPa 0,0 l/m 0 min 0 min 0 W/m 19,3 km/h (3 Bft) 40,43 %
02.04.2023 02:36 6,8 C 6,1 C 3,9 C 98 % 1009,5 hPa 0,0 l/m 0 min 0 min 0 W/m 12,9 km/h (3 Bft) 63,83 %
02.04.2023 02:38 6,8 C 6,1 C 3,9 C 98 % 1009,5 hPa 0,0 l/m 0 min 0 min 0 W/m 16,1 km/h (3 Bft) 59,57 %
02.04.2023 02:40 6,7 C 6,1 C 3,9 C 98 % 1009,6 hPa 0,0 l/m 0 min 0 min 0 W/m 25,7 km/h (4 Bft) 73,47 %
02.04.2023 02:42 6,7 C 6,1 C 3,9 C 98 % 1009,6 hPa 0,0 l/m 0 min 0 min 0 W/m 32,2 km/h (5 Bft) 61,70 %
02.04.2023 02:44 6,7 C 6,1 C 3,9 C 98 % 1009,7 hPa 0,0 l/m 0 min 0 min 0 W/m 12,9 km/h (3 Bft) 65,96 %
02.04.2023 02:46 6,7 C 6,1 C 3,9 C 98 % 1009,7 hPa 0,0 l/m 0 min 0 min 0 W/m 35,4 km/h (5 Bft) 61,70 %
02.04.2023 02:48 6,7 C 6,1 C 3,9 C 98 % 1009,7 hPa 0,0 l/m 0 min 0 min 0 W/m 22,5 km/h (4 Bft) 68,09 %
02.04.2023 02:50 6,6 C 6,1 C 3,9 C 98 % 1009,7 hPa 0,0 l/m 0 min 0 min 0 W/m 32,2 km/h (5 Bft) 76,60 %
02.04.2023 02:52 6,6 C 6,1 C 3,9 C 98 % 1009,8 hPa 0,0 l/m 0 min 0 min 0 W/m 32,2 km/h (5 Bft) 82,98 %
02.04.2023 02:54 6,6 C 6,1 C 3,9 C 98 % 1009,8 hPa 0,0 l/m 0 min 0 min 0 W/m 22,5 km/h (4 Bft) 74,47 %
02.04.2023 02:56 6,5 C 6,1 C 3,9 C 98 % 1009,8 hPa 0,0 l/m 0 min 0 min 0 W/m 25,7 km/h (4 Bft) 61,70 %
02.04.2023 02:58 6,5 C 6,1 C 3,9 C 98 % 1010,0 hPa 0,0 l/m 0 min 0 min 0 W/m 9,7 km/h (2 Bft) 78,72 %
02.04.2023 03:00 6,5 C 6,1 C 3,9 C 98 % 1009,9 hPa 0,0 l/m 0 min 0 min 0 W/m 12,9 km/h (3 Bft) 73,91 %
02.04.2023 03:02 6,5 C 6,1 C 3,9 C 98 % 1010,0 hPa 0,0 l/m 0 min 0 min 0 W/m 35,4 km/h (5 Bft) 51,06 %
02.04.2023 03:04 6,5 C 6,1 C 3,9 C 98 % 1009,9 hPa 0,0 l/m 0 min 0 min 0 W/m 16,1 km/h (3 Bft) 66,67 %
02.04.2023 03:06 6,5 C 6,1 C 3,9 C 98 % 1010,0 hPa 0,0 l/m 0 min 0 min 0 W/m 19,3 km/h (3 Bft) 65,96 %
02.04.2023 03:08 6,4 C 6,1 C 3,9 C 98 % 1010,1 hPa 0,0 l/m 0 min 0 min 0 W/m 19,3 km/h (3 Bft) 72,92 %
02.04.2023 03:10 6,4 C 6,1 C 3,9 C 98 % 1010,1 hPa 0,0 l/m 0 min 0 min 0 W/m 9,7 km/h (2 Bft) 72,34 %
02.04.2023 03:12 6,4 C 6,1 C 3,9 C 98 % 1010,1 hPa 0,0 l/m 0 min 0 min 0 W/m 16,1 km/h (3 Bft) 78,72 %
02.04.2023 03:14 6,4 C 6,1 C 3,9 C 98 % 1010,1 hPa 0,0 l/m 0 min 0 min 0 W/m 35,4 km/h (5 Bft) 71,74 %
02.04.2023 03:16 6,4 C 6,1 C 3,9 C 98 % 1010,2 hPa 0,0 l/m 0 min 0 min 0 W/m 22,5 km/h (4 Bft) 74,47 %
02.04.2023 03:18 6,4 C 5,6 C 3,3 C 98 % 1010,2 hPa 0,0 l/m 0 min 0 min 0 W/m 32,2 km/h (5 Bft) 89,36 %
02.04.2023 03:20 6,4 C 5,6 C 3,3 C 98 % 1010,3 hPa 0,0 l/m 0 min 0 min 0 W/m 12,9 km/h (3 Bft) 91,67 %
02.04.2023 03:22 6,4 C 5,6 C 3,9 C 98 % 1010,3 hPa 0,0 l/m 0 min 0 min 0 W/m 9,7 km/h (2 Bft) 85,11 %
02.04.2023 03:24 6,4 C 5,6 C 3,3 C 98 % 1010,3 hPa 0,0 l/m 0 min 0 min 0 W/m 19,3 km/h (3 Bft) 85,11 %
02.04.2023 03:26 6,4 C 5,6 C 3,9 C 98 % 1010,4 hPa 0,0 l/m 0 min 0 min 0 W/m 12,9 km/h (3 Bft) 95,74 %
02.04.2023 03:28 6,4 C 5,6 C 3,9 C 98 % 1010,3 hPa 0,0 l/m 0 min 0 min 0 W/m 9,7 km/h (2 Bft) 86,96 %
02.04.2023 03:30 6,4 C 5,6 C 3,9 C 98 % 1010,4 hPa 0,0 l/m 0 min 0 min 0 W/m 22,5 km/h (4 Bft) 80,85 %
02.04.2023 03:32 6,4 C 5,6 C 3,9 C 98 % 1010,4 hPa 0,0 l/m 0 min 0 min 0 W/m 16,1 km/h (3 Bft) 87,23 %
02.04.2023 03:34 6,3 C 5,6 C 3,3 C 98 % 1010,4 hPa 0,0 l/m 0 min 0 min 0 W/m 32,2 km/h (5 Bft) 95,74 %
02.04.2023 03:36 6,3 C 5,6 C 3,3 C 98 % 1010,5 hPa 0,0 l/m 0 min 0 min 0 W/m 16,1 km/h (3 Bft) 97,87 %
02.04.2023 03:38 6,2 C 5,6 C 3,3 C 98 % 1010,5 hPa 0,0 l/m 0 min 0 min 0 W/m 25,7 km/h (4 Bft) 89,36 %
02.04.2023 03:40 6,1 C 5,6 C 3,3 C 98 % 1010,6 hPa 0,0 l/m 0 min 0 min 0 W/m 25,7 km/h (4 Bft) 95,74 %
02.04.2023 03:42 6,1 C 5,6 C 3,3 C 98 % 1010,6 hPa 0,0 l/m 0 min 0 min 0 W/m 22,5 km/h (4 Bft) 95,65 %
02.04.2023 03:44 6,1 C 5,6 C 3,3 C 98 % 1010,6 hPa 0,0 l/m 0 min 0 min 0 W/m 19,3 km/h (3 Bft) 91,49 %
02.04.2023 03:46 6,1 C 5,6 C 3,3 C 98 % 1010,7 hPa 0,0 l/m 0 min 0 min 0 W/m 25,7 km/h (4 Bft) 95,74 %
02.04.2023 03:48 6,1 C 5,6 C 3,3 C 98 % 1010,6 hPa 0,0 l/m 0 min 0 min 0 W/m 22,5 km/h (4 Bft) 72,34 %
02.04.2023 03:50 6,0 C 5,6 C 3,3 C 98 % 1010,7 hPa 0,0 l/m 0 min 0 min 0 W/m 19,3 km/h (3 Bft) 57,45 %
02.04.2023 03:52 6,0 C 5,6 C 3,3 C 98 % 1010,7 hPa 0,0 l/m 0 min 0 min 0 W/m 19,3 km/h (3 Bft) 74,47 %
02.04.2023 03:54 5,9 C 5,6 C 3,3 C 98 % 1010,7 hPa 0,0 l/m 0 min 0 min 0 W/m 35,4 km/h (5 Bft) 95,65 %
02.04.2023 03:56 5,9 C 5,6 C 2,8 C 98 % 1010,7 hPa 0,0 l/m 0 min 0 min 0 W/m 29,0 km/h (5 Bft) 76,60 %
02.04.2023 03:58 5,9 C 5,6 C 2,8 C 98 % 1010,8 hPa 0,0 l/m 0 min 0 min 0 W/m 22,5 km/h (4 Bft) 85,11 %
02.04.2023 04:03 5,8 C 5,6 C 2,8 C 98 % 1010,9 hPa 0,0 l/m 0 min 0 min 0 W/m 38,6 km/h (5 Bft) 95,00 %
02.04.2023 04:04 5,8 C 5,6 C 2,8 C 98 % 1010,9 hPa 0,0 l/m 0 min 0 min 0 W/m 22,5 km/h (4 Bft) 83,33 %
02.04.2023 04:06 5,8 C 5,6 C 2,8 C 98 % 1010,9 hPa 0,0 l/m 0 min 0 min 0 W/m 35,4 km/h (5 Bft) 94,92 %
02.04.2023 04:08 5,8 C 5,6 C 2,8 C 98 % 1011,0 hPa 0,0 l/m 0 min 0 min 0 W/m 22,5 km/h (4 Bft) 94,29 %
02.04.2023 04:10 5,8 C 5,6 C 2,8 C 98 % 1011,0 hPa 0,0 l/m 0 min 0 min 0 W/m 25,7 km/h (4 Bft) 100,00 %
02.04.2023 04:12 5,8 C 5,6 C 3,3 C 98 % 1011,0 hPa 0,0 l/m 0 min 0 min 0 W/m 12,9 km/h (3 Bft) 97,83 %
02.04.2023 04:14 5,8 C 5,6 C 2,8 C 98 % 1011,0 hPa 0,0 l/m 0 min 0 min 0 W/m 16,1 km/h (3 Bft) 95,74 %
02.04.2023 04:16 5,8 C 5,6 C 2,8 C 98 % 1011,1 hPa 0,0 l/m 0 min 0 min 0 W/m 16,1 km/h (3 Bft) 95,74 %
02.04.2023 04:18 5,8 C 5,6 C 3,3 C 98 % 1011,1 hPa 0,0 l/m 0 min 0 min 0 W/m 16,1 km/h (3 Bft) 97,87 %
02.04.2023 04:20 5,9 C 5,6 C 2,8 C 98 % 1011,2 hPa 0,0 l/m 0 min 0 min 0 W/m 22,5 km/h (4 Bft) 93,62 %
02.04.2023 04:22 5,9 C 5,6 C 3,3 C 98 % 1011,2 hPa 0,0 l/m 0 min 0 min 0 W/m 16,1 km/h (3 Bft) 95,74 %
02.04.2023 04:24 5,9 C 5,6 C 3,3 C 98 % 1011,3 hPa 0,0 l/m 0 min 0 min 0 W/m 16,1 km/h (3 Bft) 95,74 %
02.04.2023 04:26 5,9 C 5,6 C 3,3 C 98 % 1011,4 hPa 0,0 l/m 0 min 0 min 0 W/m 19,3 km/h (3 Bft) 100,00 %
02.04.2023 04:28 5,9 C 5,6 C 3,3 C 98 % 1011,3 hPa 0,0 l/m 0 min 0 min 0 W/m 9,7 km/h (2 Bft) 100,00 %
02.04.2023 04:30 5,9 C 5,6 C 3,3 C 98 % 1011,4 hPa 0,0 l/m 0 min 0 min 0 W/m 16,1 km/h (3 Bft) 100,00 %
02.04.2023 04:32 5,9 C 5,6 C 2,8 C 98 % 1011,4 hPa 0,0 l/m 0 min 0 min 0 W/m 19,3 km/h (3 Bft) 100,00 %
02.04.2023 04:34 5,9 C 5,6 C 2,8 C 98 % 1011,5 hPa 0,0 l/m 0 min 0 min 0 W/m 19,3 km/h (3 Bft) 100,00 %
02.04.2023 04:36 5,9 C 5,6 C 2,8 C 98 % 1011,5 hPa 0,0 l/m 0 min 0 min 0 W/m 25,7 km/h (4 Bft) 97,87 %
02.04.2023 04:38 5,8 C 5,6 C 2,8 C 98 % 1011,6 hPa 0,0 l/m 0 min 0 min 0 W/m 9,7 km/h (2 Bft) 97,87 %
02.04.2023 04:40 5,8 C 5,6 C 2,8 C 98 % 1011,7 hPa 0,0 l/m 0 min 0 min 0 W/m 25,7 km/h (4 Bft) 93,48 %
02.04.2023 04:42 5,8 C 5,6 C 2,8 C 97 % 1011,7 hPa 0,0 l/m 0 min 0 min 0 W/m 22,5 km/h (4 Bft) 95,74 %
02.04.2023 04:44 5,8 C 5,0 C 2,8 C 97 % 1011,7 hPa 0,0 l/m 0 min 0 min 0 W/m 29,0 km/h (5 Bft) 97,87 %
02.04.2023 04:46 5,7 C 5,0 C 2,8 C 97 % 1011,8 hPa 0,0 l/m 0 min 0 min 0 W/m 22,5 km/h (4 Bft) 95,74 %
02.04.2023 04:48 5,7 C 5,0 C 2,8 C 97 % 1011,8 hPa 0,0 l/m 0 min 0 min 0 W/m 12,9 km/h (3 Bft) 97,87 %
02.04.2023 04:50 5,6 C 5,0 C 2,8 C 97 % 1011,9 hPa 0,0 l/m 0 min 0 min 0 W/m 25,7 km/h (4 Bft) 95,74 %
02.04.2023 04:52 5,6 C 5,0 C 2,8 C 97 % 1011,9 hPa 0,0 l/m 0 min 0 min 0 W/m 25,7 km/h (4 Bft) 91,30 %
02.04.2023 04:54 5,6 C 5,0 C 2,8 C 97 % 1011,9 hPa 0,0 l/m 0 min 0 min 0 W/m 16,1 km/h (3 Bft) 93,62 %
02.04.2023 04:56 5,6 C 5,0 C 2,8 C 97 % 1012,0 hPa 0,0 l/m 0 min 0 min 0 W/m 9,7 km/h (2 Bft) 91,49 %
02.04.2023 04:58 5,6 C 5,0 C 2,8 C 97 % 1012,0 hPa 0,0 l/m 0 min 0 min 0 W/m 22,5 km/h (4 Bft) 95,74 %
02.04.2023 05:00 5,6 C 5,0 C 2,8 C 97 % 1012,1 hPa 0,0 l/m 0 min 0 min 0 W/m 16,1 km/h (3 Bft) 95,74 %
02.04.2023 05:02 5,6 C 5,0 C 2,8 C 97 % 1012,1 hPa 0,0 l/m 0 min 0 min 0 W/m 19,3 km/h (3 Bft) 96,00 %
02.04.2023 05:04 5,6 C 5,0 C 2,8 C 97 % 1012,1 hPa 0,0 l/m 0 min 0 min 0 W/m 25,7 km/h (4 Bft) 97,87 %
02.04.2023 05:06 5,6 C 5,0 C 2,8 C 97 % 1012,2 hPa 0,0 l/m 0 min 0 min 0 W/m 16,1 km/h (3 Bft) 95,65 %
02.04.2023 05:08 5,6 C 5,0 C 2,8 C 97 % 1012,2 hPa 0,0 l/m 0 min 0 min 0 W/m 16,1 km/h (3 Bft) 95,83 %
02.04.2023 05:10 5,6 C 5,0 C 2,8 C 97 % 1012,3 hPa 0,0 l/m 0 min 0 min 0 W/m 25,7 km/h (4 Bft) 95,74 %
02.04.2023 05:12 5,6 C 5,0 C 2,8 C 97 % 1012,3 hPa 0,0 l/m 0 min 0 min 0 W/m 16,1 km/h (3 Bft) 93,62 %
02.04.2023 05:14 5,6 C 5,0 C 2,8 C 97 % 1012,3 hPa 0,0 l/m 0 min 0 min 0 W/m 16,1 km/h (3 Bft) 97,87 %
02.04.2023 05:16 5,6 C 5,0 C 2,8 C 97 % 1012,3 hPa 0,0 l/m 0 min 0 min 0 W/m 16,1 km/h (3 Bft) 95,74 %
02.04.2023 05:18 5,6 C 5,0 C 2,8 C 97 % 1012,4 hPa 0,0 l/m 0 min 0 min 0 W/m 12,9 km/h (3 Bft) 97,87 %
02.04.2023 05:20 5,6 C 5,0 C 2,8 C 96 % 1012,5 hPa 0,0 l/m 0 min 0 min 0 W/m 9,7 km/h (2 Bft) 93,88 %
02.04.2023 05:22 5,6 C 5,0 C 2,8 C 96 % 1012,5 hPa 0,0 l/m 0 min 0 min 0 W/m 16,1 km/h (3 Bft) 95,74 %
02.04.2023 05:24 5,6 C 5,0 C 2,8 C 96 % 1012,5 hPa 0,0 l/m 0 min 0 min 0 W/m 16,1 km/h (3 Bft) 95,74 %
02.04.2023 05:26 5,6 C 5,0 C 2,8 C 97 % 1012,6 hPa 0,0 l/m 0 min 0 min 0 W/m 16,1 km/h (3 Bft) 95,74 %
02.04.2023 05:28 5,6 C 5,0 C 2,8 C 97 % 1012,7 hPa 0,0 l/m 0 min 0 min 0 W/m 29,0 km/h (5 Bft) 95,74 %
02.04.2023 05:30 5,6 C 5,0 C 2,8 C 97 % 1012,7 hPa 0,0 l/m 0 min 0 min 0 W/m 22,5 km/h (4 Bft) 95,65 %
02.04.2023 05:32 5,6 C 5,0 C 2,8 C 97 % 1012,7 hPa 0,0 l/m 0 min 0 min 0 W/m 19,3 km/h (3 Bft) 95,74 %
02.04.2023 05:34 5,6 C 5,0 C 2,8 C 97 % 1012,8 hPa 0,0 l/m 0 min 0 min 0 W/m 25,7 km/h (4 Bft) 93,62 %
02.04.2023 05:36 5,5 C 5,0 C 2,8 C 96 % 1012,8 hPa 0,0 l/m 0 min 0 min 0 W/m 16,1 km/h (3 Bft) 95,74 %
02.04.2023 05:38 5,5 C 5,0 C 2,8 C 96 % 1012,8 hPa 0,0 l/m 0 min 0 min 0 W/m 22,5 km/h (4 Bft) 93,62 %
02.04.2023 05:40 5,5 C 5,0 C 2,8 C 96 % 1012,9 hPa 0,0 l/m 0 min 0 min 0 W/m 16,1 km/h (3 Bft) 95,74 %
02.04.2023 05:42 5,5 C 5,0 C 2,8 C 96 % 1012,9 hPa 0,0 l/m 0 min 0 min 0 W/m 16,1 km/h (3 Bft) 95,74 %
02.04.2023 05:44 5,4 C 5,0 C 2,8 C 96 % 1013,0 hPa 0,0 l/m 0 min 0 min 0 W/m 22,5 km/h (4 Bft) 95,65 %
02.04.2023 05:46 5,4 C 5,0 C 2,8 C 96 % 1013,0 hPa 0,0 l/m 0 min 0 min 0 W/m 25,7 km/h (4 Bft) 93,62 %
02.04.2023 05:48 5,4 C 5,0 C 2,8 C 96 % 1013,0 hPa 0,0 l/m 0 min 0 min 0 W/m 35,4 km/h (5 Bft) 93,62 %
02.04.2023 05:50 5,4 C 5,0 C 2,8 C 96 % 1013,0 hPa 0,0 l/m 0 min 0 min 0 W/m 16,1 km/h (3 Bft) 93,62 %
02.04.2023 05:52 5,4 C 5,0 C 2,8 C 96 % 1013,1 hPa 0,0 l/m 0 min 0 min 0 W/m 25,7 km/h (4 Bft) 97,87 %
02.04.2023 05:54 5,4 C 5,0 C 2,8 C 96 % 1013,1 hPa 0,0 l/m 0 min 0 min 0 W/m 29,0 km/h (5 Bft) 94,00 %
02.04.2023 05:56 5,3 C 5,0 C 2,8 C 96 % 1013,2 hPa 0,0 l/m 0 min 0 min 0 W/m 32,2 km/h (5 Bft) 95,65 %
02.04.2023 05:58 5,3 C 5,0 C 2,8 C 96 % 1013,2 hPa 0,0 l/m 0 min 0 min 0 W/m 25,7 km/h (4 Bft) 95,74 %
02.04.2023 06:00 5,3 C 5,0 C 2,8 C 96 % 1013,3 hPa 0,0 l/m 0 min 0 min 0 W/m 35,4 km/h (5 Bft) 97,87 %
02.04.2023 06:02 5,3 C 5,0 C 2,8 C 96 % 1013,3 hPa 0,0 l/m 0 min 0 min 0 W/m 16,1 km/h (3 Bft) 97,87 %
02.04.2023 06:04 5,3 C 5,0 C 2,8 C 96 % 1013,4 hPa 0,0 l/m 0 min 0 min 0 W/m 19,3 km/h (3 Bft) 100,00 %
02.04.2023 06:08 5,2 C 5,0 C 2,8 C 96 % 1013,4 hPa 0,0 l/m 0 min 0 min 0 W/m 25,7 km/h (4 Bft) 98,95 %
02.04.2023 06:10 5,2 C 4,4 C 2,2 C 96 % 1013,4 hPa 0,0 l/m 0 min 0 min 0 W/m 19,3 km/h (3 Bft) 100,00 %
02.04.2023 06:12 5,2 C 4,4 C 2,2 C 95 % 1013,5 hPa 0,0 l/m 0 min 0 min 0 W/m 25,7 km/h (4 Bft) 100,00 %
02.04.2023 06:14 5,2 C 4,4 C 2,2 C 95 % 1013,6 hPa 0,0 l/m 0 min 0 min 0 W/m 35,4 km/h (5 Bft) 100,00 %
02.04.2023 06:16 5,2 C 4,4 C 2,2 C 95 % 1013,6 hPa 0,0 l/m 0 min 0 min 0 W/m 19,3 km/h (3 Bft) 100,00 %
02.04.2023 06:18 5,1 C 4,4 C 2,2 C 95 % 1013,7 hPa 0,0 l/m 0 min 0 min 0 W/m 16,1 km/h (3 Bft) 95,74 %
02.04.2023 06:20 5,1 C 4,4 C 2,2 C 95 % 1013,8 hPa 0,0 l/m 0 min 0 min 0 W/m 29,0 km/h (5 Bft) 100,00 %
02.04.2023 06:22 5,1 C 4,4 C 2,2 C 95 % 1013,8 hPa 0,0 l/m 0 min 0 min 0 W/m 16,1 km/h (3 Bft) 100,00 %
02.04.2023 06:24 5,1 C 4,4 C 2,2 C 95 % 1013,8 hPa 0,0 l/m 0 min 0 min 0 W/m 16,1 km/h (3 Bft) 97,83 %
02.04.2023 06:26 5,1 C 4,4 C 2,2 C 95 % 1013,9 hPa 0,0 l/m 0 min 0 min 0 W/m 25,7 km/h (4 Bft) 93,62 %
02.04.2023 06:28 5,1 C 4,4 C 2,2 C 95 % 1014,0 hPa 0,0 l/m 0 min 0 min 0 W/m 41,8 km/h (6 Bft) 97,87 %
02.04.2023 06:30 5,1 C 4,4 C 2,2 C 95 % 1014,0 hPa 0,0 l/m 0 min 0 min 0 W/m 32,2 km/h (5 Bft) 97,87 %
02.04.2023 06:32 5,1 C 4,4 C 2,2 C 95 % 1014,1 hPa 0,0 l/m 0 min 0 min 0 W/m 19,3 km/h (3 Bft) 97,87 %
02.04.2023 06:34 5,1 C 4,4 C 2,2 C 95 % 1014,1 hPa 0,0 l/m 0 min 0 min 0 W/m 32,2 km/h (5 Bft) 95,74 %
02.04.2023 06:36 5,0 C 4,4 C 2,2 C 95 % 1014,2 hPa 0,0 l/m 0 min 0 min 0 W/m 25,7 km/h (4 Bft) 97,83 %
02.04.2023 06:38 5,0 C 4,4 C 2,2 C 95 % 1014,3 hPa 0,0 l/m 0 min 0 min 0 W/m 19,3 km/h (3 Bft) 97,87 %
02.04.2023 06:40 5,0 C 4,4 C 2,2 C 95 % 1014,3 hPa 0,0 l/m 0 min 0 min 0 W/m 19,3 km/h (3 Bft) 95,74 %
02.04.2023 06:42 5,0 C 4,4 C 2,2 C 95 % 1014,3 hPa 0,0 l/m 0 min 0 min 0 W/m 22,5 km/h (4 Bft) 97,87 %
02.04.2023 06:44 5,0 C 4,4 C 2,2 C 95 % 1014,3 hPa 0,0 l/m 0 min 0 min 0 W/m 19,3 km/h (3 Bft) 95,74 %
02.04.2023 06:46 5,0 C 4,4 C 2,2 C 95 % 1014,4 hPa 0,0 l/m 0 min 0 min 0 W/m 22,5 km/h (4 Bft) 97,96 %
02.04.2023 06:48 5,0 C 4,4 C 2,2 C 95 % 1014,4 hPa 0,0 l/m 0 min 0 min 0 W/m 22,5 km/h (4 Bft) 97,14 %
02.04.2023 06:50 5,0 C 4,4 C 2,2 C 95 % 1014,5 hPa 0,0 l/m 0 min 0 min 0 W/m 16,1 km/h (3 Bft) 97,87 %
02.04.2023 06:52 5,0 C 4,4 C 2,2 C 95 % 1014,5 hPa 0,0 l/m 0 min 0 min 0 W/m 22,5 km/h (4 Bft) 97,87 %
02.04.2023 06:54 5,0 C 4,4 C 2,2 C 95 % 1014,5 hPa 0,0 l/m 0 min 0 min 0 W/m 19,3 km/h (3 Bft) 95,65 %
02.04.2023 06:56 5,0 C 4,4 C 2,2 C 95 % 1014,6 hPa 0,0 l/m 0 min 0 min 0 W/m 25,7 km/h (4 Bft) 100,00 %
02.04.2023 06:58 5,0 C 4,4 C 2,2 C 95 % 1014,6 hPa 0,0 l/m 0 min 0 min 0 W/m 25,7 km/h (4 Bft) 100,00 %
02.04.2023 07:00 5,0 C 4,4 C 2,2 C 95 % 1014,7 hPa 0,0 l/m 0 min 0 min 0 W/m 22,5 km/h (4 Bft) 97,87 %
02.04.2023 07:02 5,1 C 4,4 C 2,2 C 95 % 1014,7 hPa 0,0 l/m 0 min 0 min 0 W/m 12,9 km/h (3 Bft) 100,00 %
02.04.2023 07:04 5,1 C 4,4 C 2,2 C 95 % 1014,7 hPa 0,0 l/m 0 min 0 min 0 W/m 12,9 km/h (3 Bft) 100,00 %
02.04.2023 07:06 5,1 C 4,4 C 2,2 C 95 % 1014,8 hPa 0,0 l/m 0 min 0 min 0 W/m 19,3 km/h (3 Bft) 98,28 %
02.04.2023 07:08 5,1 C 4,4 C 2,2 C 95 % 1014,8 hPa 0,0 l/m 0 min 0 min 0 W/m 35,4 km/h (5 Bft) 97,14 %
02.04.2023 07:10 5,1 C 4,4 C 2,2 C 95 % 1014,9 hPa 0,0 l/m 0 min 0 min 0 W/m 12,9 km/h (3 Bft) 100,00 %
02.04.2023 07:12 5,1 C 4,4 C 2,2 C 95 % 1014,9 hPa 0,0 l/m 0 min 0 min 0 W/m 9,7 km/h (2 Bft) 97,87 %
02.04.2023 07:14 5,1 C 4,4 C 2,2 C 95 % 1014,9 hPa 0,0 l/m 0 min 0 min 0 W/m 16,1 km/h (3 Bft) 100,00 %
02.04.2023 07:16 5,1 C 4,4 C 2,2 C 95 % 1015,0 hPa 0,0 l/m 0 min 0 min 0 W/m 16,1 km/h (3 Bft) 100,00 %
02.04.2023 07:18 5,0 C 4,4 C 2,2 C 95 % 1015,0 hPa 0,0 l/m 0 min 0 min 0 W/m 19,3 km/h (3 Bft) 97,87 %
02.04.2023 07:20 5,0 C 4,4 C 2,2 C 95 % 1015,1 hPa 0,0 l/m 0 min 0 min 0 W/m 16,1 km/h (3 Bft) 97,83 %
02.04.2023 07:22 5,0 C 4,4 C 2,2 C 95 % 1015,1 hPa 0,0 l/m 0 min 2 min 0 W/m 22,5 km/h (4 Bft) 97,87 %
02.04.2023 07:24 4,9 C 4,4 C 2,2 C 95 % 1015,2 hPa 0,0 l/m 0 min 0 min 0 W/m 16,1 km/h (3 Bft) 97,87 %
02.04.2023 07:26 4,9 C 4,4 C 2,2 C 95 % 1015,2 hPa 0,0 l/m 0 min 0 min 0 W/m 16,1 km/h (3 Bft) 100,00 %
02.04.2023 07:28 4,9 C 4,4 C 2,2 C 95 % 1015,3 hPa 0,0 l/m 0 min 0 min 0 W/m 22,5 km/h (4 Bft) 97,87 %
02.04.2023 07:30 4,9 C 4,4 C 2,2 C 95 % 1015,3 hPa 0,0 l/m 0 min 0 min 0 W/m 19,3 km/h (3 Bft) 95,74 %
02.04.2023 07:32 4,8 C 4,4 C 2,2 C 95 % 1015,4 hPa 0,0 l/m 0 min 0 min 0 W/m 9,7 km/h (2 Bft) 100,00 %
02.04.2023 07:34 4,8 C 4,4 C 2,2 C 95 % 1015,4 hPa 0,0 l/m 0 min 0 min 0 W/m 16,1 km/h (3 Bft) 100,00 %
02.04.2023 07:36 4,8 C 4,4 C 2,2 C 95 % 1015,5 hPa 0,0 l/m 0 min 0 min 0 W/m 12,9 km/h (3 Bft) 97,87 %
02.04.2023 07:38 4,8 C 4,4 C 2,2 C 95 % 1015,5 hPa 0,0 l/m 0 min 0 min 0 W/m 22,5 km/h (4 Bft) 97,87 %
02.04.2023 07:40 4,8 C 4,4 C 2,2 C 95 % 1015,6 hPa 0,0 l/m 0 min 0 min 5 W/m 19,3 km/h (3 Bft) 97,87 %
02.04.2023 07:42 4,7 C 3,9 C 2,2 C 95 % 1015,6 hPa 0,0 l/m 0 min 0 min 5 W/m 16,1 km/h (3 Bft) 95,74 %
02.04.2023 07:44 4,7 C 3,9 C 1,7 C 95 % 1015,7 hPa 0,0 l/m 0 min 0 min 5 W/m 29,0 km/h (5 Bft) 97,87 %
02.04.2023 07:46 4,7 C 3,9 C 1,7 C 95 % 1015,7 hPa 0,0 l/m 0 min 0 min 5 W/m 25,7 km/h (4 Bft) 95,74 %
02.04.2023 07:48 4,6 C 3,9 C 1,7 C 95 % 1015,7 hPa 0,0 l/m 0 min 0 min 6 W/m 25,7 km/h (4 Bft) 91,30 %
02.04.2023 07:50 4,6 C 3,9 C 1,7 C 95 % 1015,8 hPa 0,0 l/m 0 min 0 min 7 W/m 25,7 km/h (4 Bft) 97,87 %
02.04.2023 07:52 4,6 C 3,9 C 1,7 C 95 % 1015,8 hPa 0,0 l/m 0 min 0 min 7 W/m 16,1 km/h (3 Bft) 97,87 %
02.04.2023 07:54 4,6 C 3,9 C 1,7 C 95 % 1015,8 hPa 0,0 l/m 0 min 0 min 6 W/m 19,3 km/h (3 Bft) 95,74 %
02.04.2023 07:56 4,6 C 3,9 C 1,7 C 95 % 1015,9 hPa 0,0 l/m 0 min 0 min 7 W/m 32,2 km/h (5 Bft) 97,87 %
02.04.2023 07:58 4,5 C 3,9 C 1,7 C 95 % 1016,0 hPa 0,0 l/m 0 min 0 min 8 W/m 16,1 km/h (3 Bft) 97,87 %
02.04.2023 08:00 4,5 C 3,9 C 1,7 C 95 % 1016,0 hPa 0,0 l/m 0 min 0 min 8 W/m 16,1 km/h (3 Bft) 95,65 %
02.04.2023 08:02 4,4 C 3,9 C 1,7 C 95 % 1015,9 hPa 0,0 l/m 0 min 0 min 11 W/m 22,5 km/h (4 Bft) 95,74 %
02.04.2023 08:04 4,4 C 3,9 C 1,7 C 95 % 1016,1 hPa 0,0 l/m 0 min 0 min 12 W/m 19,3 km/h (3 Bft) 97,87 %
02.04.2023 08:06 4,4 C 3,9 C 1,7 C 95 % 1016,2 hPa 0,0 l/m 0 min 0 min 15 W/m 19,3 km/h (3 Bft) 94,92 %
02.04.2023 08:08 4,4 C 3,9 C 1,7 C 95 % 1016,2 hPa 0,0 l/m 0 min 0 min 20 W/m 29,0 km/h (5 Bft) 97,14 %
02.04.2023 08:10 4,4 C 3,9 C 1,7 C 95 % 1016,2 hPa 0,0 l/m 0 min 0 min 20 W/m 22,5 km/h (4 Bft) 97,87 %
02.04.2023 08:12 4,4 C 3,9 C 1,7 C 95 % 1016,3 hPa 0,0 l/m 0 min 0 min 16 W/m 25,7 km/h (4 Bft) 95,74 %
02.04.2023 08:14 4,4 C 3,9 C 2,2 C 95 % 1016,3 hPa 0,0 l/m 0 min 0 min 15 W/m 41,8 km/h (6 Bft) 95,65 %
02.04.2023 08:16 4,4 C 3,9 C 1,7 C 95 % 1016,4 hPa 0,0 l/m 0 min 0 min 13 W/m 32,2 km/h (5 Bft) 97,87 %
02.04.2023 08:18 4,4 C 3,9 C 1,7 C 95 % 1016,5 hPa 0,0 l/m 0 min 0 min 12 W/m 32,2 km/h (5 Bft) 97,87 %
02.04.2023 08:20 4,4 C 3,9 C 1,7 C 95 % 1016,5 hPa 0,0 l/m 0 min 0 min 16 W/m 25,7 km/h (4 Bft) 97,87 %
02.04.2023 08:22 4,4 C 3,9 C 2,2 C 95 % 1016,6 hPa 0,0 l/m 0 min 0 min 15 W/m 35,4 km/h (5 Bft) 97,87 %
02.04.2023 08:24 4,4 C 3,9 C 1,7 C 95 % 1016,6 hPa 0,0 l/m 0 min 0 min 9 W/m 22,5 km/h (4 Bft) 95,74 %
02.04.2023 08:26 4,4 C 3,9 C 2,2 C 95 % 1016,6 hPa 0,0 l/m 0 min 0 min 10 W/m 22,5 km/h (4 Bft) 97,87 %
02.04.2023 08:28 4,4 C 3,9 C 1,7 C 95 % 1016,7 hPa 0,0 l/m 0 min 0 min 11 W/m 16,1 km/h (3 Bft) 91,30 %
02.04.2023 08:30 4,4 C 3,9 C 1,7 C 95 % 1016,7 hPa 0,0 l/m 0 min 0 min 14 W/m 19,3 km/h (3 Bft) 91,49 %
02.04.2023 08:32 4,4 C 3,9 C 1,7 C 95 % 1016,8 hPa 0,0 l/m 0 min 0 min 17 W/m 22,5 km/h (4 Bft) 95,83 %
02.04.2023 08:34 4,4 C 3,9 C 1,7 C 95 % 1016,8 hPa 0,0 l/m 0 min 0 min 22 W/m 16,1 km/h (3 Bft) 95,74 %
02.04.2023 08:36 4,4 C 3,9 C 1,7 C 95 % 1016,8 hPa 0,0 l/m 0 min 0 min 23 W/m 25,7 km/h (4 Bft) 93,62 %
02.04.2023 08:38 4,3 C 3,9 C 1,7 C 95 % 1016,9 hPa 0,0 l/m 0 min 0 min 26 W/m 35,4 km/h (5 Bft) 95,74 %
02.04.2023 08:40 4,3 C 3,9 C 1,7 C 95 % 1016,9 hPa 0,0 l/m 0 min 0 min 29 W/m 12,9 km/h (3 Bft) 95,74 %
02.04.2023 08:42 4,3 C 3,9 C 1,7 C 95 % 1016,9 hPa 0,0 l/m 0 min 0 min 27 W/m 32,2 km/h (5 Bft) 95,65 %
02.04.2023 08:44 4,3 C 3,9 C 1,7 C 95 % 1017,0 hPa 0,0 l/m 0 min 0 min 24 W/m 32,2 km/h (5 Bft) 97,87 %
02.04.2023 08:46 4,3 C 3,9 C 1,7 C 95 % 1017,1 hPa 0,0 l/m 0 min 0 min 23 W/m 29,0 km/h (5 Bft) 95,74 %
02.04.2023 08:48 4,2 C 3,9 C 1,7 C 95 % 1017,0 hPa 0,0 l/m 0 min 0 min 24 W/m 19,3 km/h (3 Bft) 95,74 %
02.04.2023 08:50 4,2 C 3,9 C 1,7 C 95 % 1017,1 hPa 0,0 l/m 0 min 0 min 25 W/m 16,1 km/h (3 Bft) 97,87 %
02.04.2023 08:52 4,2 C 3,9 C 1,7 C 95 % 1017,1 hPa 0,0 l/m 0 min 0 min 25 W/m 32,2 km/h (5 Bft) 97,87 %
02.04.2023 08:54 4,2 C 3,9 C 1,7 C 95 % 1017,2 hPa 0,0 l/m 0 min 0 min 25 W/m 29,0 km/h (5 Bft) 97,83 %
02.04.2023 08:56 4,2 C 3,9 C 1,7 C 95 % 1017,2 hPa 0,0 l/m 0 min 0 min 28 W/m 16,1 km/h (3 Bft) 97,87 %
02.04.2023 08:58 4,2 C 3,9 C 1,7 C 95 % 1017,2 hPa 0,0 l/m 0 min 0 min 30 W/m 12,9 km/h (3 Bft) 97,87 %
02.04.2023 09:00 4,2 C 3,9 C 1,7 C 95 % 1017,2 hPa 0,0 l/m 0 min 0 min 32 W/m 16,1 km/h (3 Bft) 97,87 %
02.04.2023 09:02 4,2 C 3,9 C 1,7 C 95 % 1017,3 hPa 0,0 l/m 0 min 0 min 32 W/m 16,1 km/h (3 Bft) 95,74 %
02.04.2023 09:04 4,2 C 3,9 C 1,7 C 94 % 1017,4 hPa 0,0 l/m 0 min 0 min 31 W/m 32,2 km/h (5 Bft) 97,87 %
02.04.2023 09:06 4,2 C 3,9 C 1,7 C 94 % 1017,4 hPa 0,0 l/m 0 min 0 min 32 W/m 12,9 km/h (3 Bft) 97,87 %
02.04.2023 09:08 4,2 C 3,9 C 1,7 C 94 % 1017,5 hPa 0,0 l/m 0 min 0 min 33 W/m 12,9 km/h (3 Bft) 95,65 %
02.04.2023 09:10 4,2 C 3,9 C 1,7 C 94 % 1017,5 hPa 0,0 l/m 0 min 0 min 33 W/m 12,9 km/h (3 Bft) 97,87 %
02.04.2023 09:12 4,3 C 3,9 C 1,7 C 94 % 1017,6 hPa 0,0 l/m 0 min 0 min 33 W/m 16,1 km/h (3 Bft) 95,74 %
02.04.2023 09:14 4,3 C 3,9 C 1,7 C 94 % 1017,6 hPa 0,0 l/m 0 min 0 min 34 W/m 25,7 km/h (4 Bft) 95,74 %
02.04.2023 09:16 4,3 C 3,9 C 1,7 C 94 % 1017,6 hPa 0,0 l/m 0 min 0 min 35 W/m 25,7 km/h (4 Bft) 95,74 %
02.04.2023 09:18 4,3 C 3,9 C 1,7 C 94 % 1017,7 hPa 0,0 l/m 0 min 0 min 38 W/m 22,5 km/h (4 Bft) 97,87 %
02.04.2023 09:20 4,3 C 3,9 C 1,7 C 94 % 1017,7 hPa 0,0 l/m 0 min 0 min 39 W/m 19,3 km/h (3 Bft) 97,87 %
02.04.2023 09:22 4,3 C 3,9 C 1,7 C 94 % 1017,8 hPa 0,0 l/m 0 min 0 min 41 W/m 25,7 km/h (4 Bft) 100,00 %
02.04.2023 09:24 4,2 C 3,9 C 1,7 C 94 % 1017,8 hPa 0,0 l/m 0 min 0 min 44 W/m 22,5 km/h (4 Bft) 100,00 %
02.04.2023 09:26 4,2 C 3,9 C 1,7 C 94 % 1017,8 hPa 0,0 l/m 0 min 0 min 44 W/m 22,5 km/h (4 Bft) 97,87 %
02.04.2023 09:28 4,2 C 3,9 C 1,7 C 94 % 1017,9 hPa 0,0 l/m 0 min 0 min 46 W/m 16,1 km/h (3 Bft) 100,00 %
02.04.2023 09:30 4,2 C 3,9 C 1,7 C 94 % 1017,9 hPa 0,0 l/m 0 min 0 min 49 W/m 19,3 km/h (3 Bft) 100,00 %
02.04.2023 09:32 4,2 C 3,9 C 1,7 C 94 % 1018,0 hPa 0,0 l/m 0 min 0 min 48 W/m 22,5 km/h (4 Bft) 97,87 %
02.04.2023 09:34 4,2 C 3,9 C 1,7 C 94 % 1018,1 hPa 0,0 l/m 0 min 0 min 49 W/m 16,1 km/h (3 Bft) 100,00 %
02.04.2023 09:36 4,2 C 3,9 C 1,7 C 94 % 1018,2 hPa 0,0 l/m 0 min 0 min 52 W/m 16,1 km/h (3 Bft) 97,83 %
02.04.2023 09:38 4,2 C 3,9 C 1,7 C 94 % 1018,2 hPa 0,0 l/m 0 min 0 min 53 W/m 38,6 km/h (5 Bft) 100,00 %
02.04.2023 09:40 4,2 C 4,4 C 1,7 C 93 % 1018,2 hPa 0,0 l/m 0 min 0 min 57 W/m 22,5 km/h (4 Bft) 100,00 %
02.04.2023 09:42 4,2 C 4,4 C 1,7 C 93 % 1018,3 hPa 0,0 l/m 0 min 0 min 72 W/m 29,0 km/h (5 Bft) 100,00 %
02.04.2023 09:44 4,2 C 4,4 C 1,7 C 93 % 1018,3 hPa 0,0 l/m 0 min 0 min 70 W/m 25,7 km/h (4 Bft) 97,87 %
02.04.2023 09:46 4,3 C 4,4 C 1,7 C 93 % 1018,4 hPa 0,0 l/m 0 min 0 min 63 W/m 19,3 km/h (3 Bft) 100,00 %
02.04.2023 09:48 4,3 C 4,4 C 1,7 C 93 % 1018,3 hPa 0,0 l/m 0 min 0 min 68 W/m 22,5 km/h (4 Bft) 97,87 %
02.04.2023 09:50 4,3 C 4,4 C 1,7 C 93 % 1018,4 hPa 0,0 l/m 0 min 0 min 68 W/m 22,5 km/h (4 Bft) 100,00 %
02.04.2023 09:52 4,3 C 4,4 C 1,7 C 93 % 1018,4 hPa 0,0 l/m 0 min 0 min 68 W/m 29,0 km/h (5 Bft) 100,00 %
02.04.2023 09:54 4,3 C 4,4 C 1,7 C 93 % 1018,4 hPa 0,0 l/m 0 min 0 min 67 W/m 19,3 km/h (3 Bft) 97,87 %
02.04.2023 09:56 4,3 C 4,4 C 1,7 C 93 % 1018,4 hPa 0,0 l/m 0 min 0 min 63 W/m 12,9 km/h (3 Bft) 97,87 %
02.04.2023 09:58 4,3 C 4,4 C 1,7 C 93 % 1018,5 hPa 0,0 l/m 0 min 0 min 58 W/m 16,1 km/h (3 Bft) 95,74 %
02.04.2023 10:00 4,3 C 4,4 C 1,7 C 93 % 1018,5 hPa 0,0 l/m 0 min 0 min 58 W/m 22,5 km/h (4 Bft) 100,00 %
02.04.2023 10:02 4,3 C 4,4 C 1,7 C 93 % 1018,5 hPa 0,0 l/m 0 min 0 min 62 W/m 19,3 km/h (3 Bft) 97,87 %
02.04.2023 10:04 4,3 C 4,4 C 1,7 C 92 % 1018,6 hPa 0,0 l/m 0 min 0 min 64 W/m 12,9 km/h (3 Bft) 93,48 %
02.04.2023 10:06 4,4 C 4,4 C 1,7 C 92 % 1018,7 hPa 0,0 l/m 0 min 0 min 65 W/m 22,5 km/h (4 Bft) 95,74 %
02.04.2023 10:08 4,4 C 4,4 C 2,2 C 92 % 1018,7 hPa 0,0 l/m 0 min 0 min 66 W/m 16,1 km/h (3 Bft) 95,74 %
02.04.2023 10:10 4,4 C 4,4 C 2,2 C 92 % 1018,7 hPa 0,0 l/m 0 min 0 min 71 W/m 12,9 km/h (3 Bft) 95,74 %
02.04.2023 10:12 4,4 C 4,4 C 1,7 C 92 % 1018,8 hPa 0,0 l/m 0 min 0 min 75 W/m 16,1 km/h (3 Bft) 95,74 %
02.04.2023 10:14 4,4 C 4,4 C 1,7 C 92 % 1018,8 hPa 0,0 l/m 0 min 0 min 86 W/m 22,5 km/h (4 Bft) 95,74 %
02.04.2023 10:16 4,4 C 4,4 C 1,7 C 92 % 1018,9 hPa 0,0 l/m 0 min 0 min 93 W/m 32,2 km/h (5 Bft) 95,65 %
02.04.2023 10:18 4,4 C 4,4 C 2,2 C 92 % 1018,9 hPa 0,0 l/m 0 min 0 min 108 W/m 19,3 km/h (3 Bft) 95,74 %
02.04.2023 10:20 4,4 C 4,4 C 2,2 C 92 % 1018,9 hPa 0,0 l/m 0 min 0 min 108 W/m 19,3 km/h (3 Bft) 91,49 %
02.04.2023 10:22 4,4 C 4,4 C 1,7 C 92 % 1019,0 hPa 0,0 l/m 0 min 0 min 98 W/m 29,0 km/h (5 Bft) 95,74 %
02.04.2023 10:24 4,4 C 4,4 C 1,7 C 92 % 1019,0 hPa 0,0 l/m 0 min 0 min 102 W/m 25,7 km/h (4 Bft) 93,62 %
02.04.2023 10:26 4,4 C 4,4 C 1,7 C 91 % 1019,1 hPa 0,0 l/m 0 min 0 min 111 W/m 22,5 km/h (4 Bft) 91,49 %
02.04.2023 10:28 4,4 C 4,4 C 2,2 C 91 % 1019,1 hPa 0,0 l/m 0 min 0 min 105 W/m 22,5 km/h (4 Bft) 95,74 %
02.04.2023 10:30 4,4 C 4,4 C 2,2 C 91 % 1019,2 hPa 0,0 l/m 0 min 0 min 112 W/m 25,7 km/h (4 Bft) 95,65 %
02.04.2023 10:32 4,4 C 4,4 C 2,2 C 91 % 1019,2 hPa 0,0 l/m 0 min 0 min 111 W/m 22,5 km/h (4 Bft) 95,74 %
02.04.2023 10:34 4,4 C 4,4 C 2,2 C 91 % 1019,2 hPa 0,0 l/m 0 min 0 min 116 W/m 22,5 km/h (4 Bft) 95,74 %
02.04.2023 10:36 4,5 C 5,0 C 2,2 C 91 % 1019,2 hPa 0,0 l/m 0 min 0 min 110 W/m 16,1 km/h (3 Bft) 95,74 %
02.04.2023 10:38 4,5 C 5,0 C 2,2 C 91 % 1019,3 hPa 0,0 l/m 0 min 0 min 106 W/m 9,7 km/h (2 Bft) 95,74 %
02.04.2023 10:40 4,6 C 5,0 C 2,2 C 91 % 1019,3 hPa 0,0 l/m 0 min 0 min 107 W/m 16,1 km/h (3 Bft) 97,87 %
02.04.2023 10:42 4,6 C 4,4 C 2,2 C 91 % 1019,4 hPa 0,0 l/m 0 min 0 min 106 W/m 25,7 km/h (4 Bft) 97,87 %
02.04.2023 10:44 4,6 C 4,4 C 2,2 C 91 % 1019,4 hPa 0,0 l/m 0 min 0 min 113 W/m 32,2 km/h (5 Bft) 95,65 %
02.04.2023 10:46 4,6 C 4,4 C 2,2 C 91 % 1019,5 hPa 0,0 l/m 0 min 0 min 116 W/m 25,7 km/h (4 Bft) 97,87 %
02.04.2023 10:48 4,6 C 4,4 C 2,2 C 91 % 1019,5 hPa 0,0 l/m 0 min 0 min 106 W/m 32,2 km/h (5 Bft) 100,00 %
02.04.2023 10:50 4,6 C 4,4 C 2,2 C 90 % 1019,6 hPa 0,0 l/m 0 min 0 min 105 W/m 19,3 km/h (3 Bft) 100,00 %
02.04.2023 10:52 4,6 C 4,4 C 2,2 C 90 % 1019,7 hPa 0,0 l/m 0 min 0 min 107 W/m 32,2 km/h (5 Bft) 95,74 %
02.04.2023 10:54 4,6 C 5,0 C 2,2 C 90 % 1019,7 hPa 0,0 l/m 0 min 0 min 120 W/m 22,5 km/h (4 Bft) 57,45 %
02.04.2023 10:56 4,6 C 5,0 C 2,2 C 90 % 1019,7 hPa 0,0 l/m 0 min 0 min 134 W/m 22,5 km/h (4 Bft) 97,56 %
02.04.2023 10:58 4,7 C 5,0 C 2,2 C 90 % 1019,8 hPa 0,0 l/m 0 min 0 min 139 W/m 16,1 km/h (3 Bft) 100,00 %
02.04.2023 11:00 4,7 C 5,0 C 2,2 C 91 % 1019,7 hPa 0,0 l/m 0 min 0 min 133 W/m 25,7 km/h (4 Bft) 100,00 %
02.04.2023 11:02 4,7 C 5,0 C 2,2 C 90 % 1019,8 hPa 0,0 l/m 0 min 0 min 134 W/m 25,7 km/h (4 Bft) 100,00 %
02.04.2023 11:04 4,7 C 5,0 C 2,2 C 90 % 1019,9 hPa 0,0 l/m 0 min 0 min 141 W/m 32,2 km/h (5 Bft) 100,00 %
02.04.2023 11:06 4,7 C 5,0 C 2,2 C 90 % 1019,9 hPa 0,0 l/m 0 min 0 min 131 W/m 22,5 km/h (4 Bft) 100,00 %
02.04.2023 11:08 4,7 C 5,0 C 2,2 C 90 % 1020,0 hPa 0,0 l/m 0 min 0 min 123 W/m 19,3 km/h (3 Bft) 100,00 %
02.04.2023 11:10 4,7 C 5,0 C 2,2 C 90 % 1020,0 hPa 0,0 l/m 0 min 0 min 124 W/m 35,4 km/h (5 Bft) 100,00 %
02.04.2023 11:12 4,7 C 5,0 C 2,2 C 89 % 1020,1 hPa 0,0 l/m 0 min 0 min 120 W/m 16,1 km/h (3 Bft) 100,00 %
02.04.2023 11:14 4,8 C 5,0 C 2,2 C 89 % 1020,1 hPa 0,0 l/m 0 min 0 min 128 W/m 25,7 km/h (4 Bft) 100,00 %
02.04.2023 11:16 4,8 C 5,0 C 2,2 C 90 % 1020,1 hPa 0,0 l/m 0 min 0 min 126 W/m 22,5 km/h (4 Bft) 100,00 %
02.04.2023 11:18 4,8 C 5,0 C 2,2 C 89 % 1020,2 hPa 0,0 l/m 0 min 0 min 139 W/m 22,5 km/h (4 Bft) 100,00 %
02.04.2023 11:20 4,8 C 5,6 C 2,2 C 89 % 1020,2 hPa 0,0 l/m 0 min 0 min 156 W/m 16,1 km/h (3 Bft) 97,87 %
02.04.2023 11:22 4,8 C 5,6 C 2,2 C 89 % 1020,2 hPa 0,0 l/m 0 min 0 min 167 W/m 19,3 km/h (3 Bft) 100,00 %
02.04.2023 11:24 4,8 C 5,6 C 2,2 C 89 % 1020,2 hPa 0,0 l/m 0 min 0 min 195 W/m 19,3 km/h (3 Bft) 97,83 %
02.04.2023 11:26 4,9 C 5,6 C 2,8 C 89 % 1020,3 hPa 0,0 l/m 0 min 0 min 211 W/m 22,5 km/h (4 Bft) 100,00 %
02.04.2023 11:28 4,9 C 6,1 C 2,8 C 89 % 1020,3 hPa 0,0 l/m 0 min 0 min 238 W/m 16,1 km/h (3 Bft) 100,00 %
02.04.2023 11:30 5,1 C 6,1 C 2,8 C 89 % 1020,4 hPa 0,0 l/m 0 min 0 min 230 W/m 25,7 km/h (4 Bft) 97,87 %
02.04.2023 11:32 5,1 C 6,7 C 2,8 C 89 % 1020,3 hPa 0,0 l/m 0 min 0 min 225 W/m 16,1 km/h (3 Bft) 97,87 %
02.04.2023 11:34 5,2 C 6,7 C 2,8 C 89 % 1020,4 hPa 0,0 l/m 0 min 0 min 232 W/m 16,1 km/h (3 Bft) 97,87 %
02.04.2023 11:36 5,3 C 6,7 C 2,8 C 89 % 1020,5 hPa 0,0 l/m 0 min 0 min 195 W/m 19,3 km/h (3 Bft) 97,83 %
02.04.2023 11:38 5,3 C 6,1 C 2,8 C 89 % 1020,5 hPa 0,0 l/m 0 min 0 min 186 W/m 22,5 km/h (4 Bft) 95,74 %
02.04.2023 11:40 5,3 C 6,1 C 2,8 C 89 % 1020,5 hPa 0,0 l/m 0 min 0 min 241 W/m 16,1 km/h (3 Bft) 97,87 %
02.04.2023 11:42 5,4 C 6,7 C 3,3 C 89 % 1020,6 hPa 0,0 l/m 0 min 0 min 265 W/m 16,1 km/h (3 Bft) 93,62 %
02.04.2023 11:44 5,5 C 6,7 C 3,3 C 89 % 1020,6 hPa 0,0 l/m 0 min 0 min 224 W/m 16,1 km/h (3 Bft) 97,87 %
02.04.2023 11:46 5,6 C 6,7 C 3,3 C 89 % 1020,6 hPa 0,0 l/m 0 min 0 min 228 W/m 19,3 km/h (3 Bft) 95,74 %
02.04.2023 11:48 5,6 C 6,7 C 3,3 C 88 % 1020,6 hPa 0,0 l/m 0 min 0 min 190 W/m 16,1 km/h (3 Bft) 95,74 %
02.04.2023 11:50 5,6 C 6,7 C 3,3 C 88 % 1020,7 hPa 0,0 l/m 0 min 0 min 169 W/m 16,1 km/h (3 Bft) 95,74 %
02.04.2023 11:52 5,6 C 6,7 C 3,3 C 88 % 1020,7 hPa 0,0 l/m 0 min 0 min 165 W/m 16,1 km/h (3 Bft) 97,83 %
02.04.2023 11:54 5,6 C 6,1 C 3,3 C 88 % 1020,7 hPa 0,0 l/m 0 min 0 min 168 W/m 16,1 km/h (3 Bft) 97,87 %
02.04.2023 11:56 5,6 C 6,1 C 2,8 C 88 % 1020,7 hPa 0,0 l/m 0 min 0 min 167 W/m 29,0 km/h (5 Bft) 95,74 %
02.04.2023 11:58 5,6 C 6,1 C 2,8 C 87 % 1020,8 hPa 0,0 l/m 0 min 0 min 171 W/m 19,3 km/h (3 Bft) 95,74 %
02.04.2023 12:00 5,6 C 6,1 C 2,8 C 87 % 1020,9 hPa 0,0 l/m 0 min 0 min 176 W/m 16,1 km/h (3 Bft) 93,75 %
02.04.2023 12:02 5,6 C 6,1 C 2,8 C 86 % 1020,8 hPa 0,0 l/m 0 min 0 min 202 W/m 29,0 km/h (5 Bft) 95,74 %
02.04.2023 12:04 5,6 C 6,1 C 2,8 C 86 % 1020,9 hPa 0,0 l/m 0 min 0 min 237 W/m 35,4 km/h (5 Bft) 95,74 %
02.04.2023 12:07 5,6 C 6,1 C 2,8 C 86 % 1021,0 hPa 0,0 l/m 0 min 0 min 215 W/m 22,5 km/h (4 Bft) 94,44 %
02.04.2023 12:08 5,6 C 6,1 C 3,3 C 86 % 1021,0 hPa 0,0 l/m 0 min 0 min 214 W/m 22,5 km/h (4 Bft) 95,65 %
02.04.2023 12:12 5,7 C 6,7 C 3,3 C 86 % 1021,0 hPa 0,0 l/m 0 min 0 min 208 W/m 16,1 km/h (3 Bft) 95,83 %
02.04.2023 12:14 5,7 C 6,7 C 3,3 C 86 % 1021,1 hPa 0,0 l/m 0 min 0 min 196 W/m 19,3 km/h (3 Bft) 95,74 %
02.04.2023 12:16 5,7 C 6,7 C 3,3 C 86 % 1021,0 hPa 0,0 l/m 0 min 0 min 213 W/m 22,5 km/h (4 Bft) 91,49 %
02.04.2023 12:18 5,7 C 6,7 C 3,3 C 86 % 1021,1 hPa 0,0 l/m 0 min 0 min 244 W/m 35,4 km/h (5 Bft) 95,74 %
02.04.2023 12:20 5,8 C 6,7 C 3,3 C 86 % 1021,2 hPa 0,0 l/m 0 min 0 min 274 W/m 35,4 km/h (5 Bft) 95,65 %
02.04.2023 12:22 5,8 C 6,7 C 3,3 C 86 % 1021,1 hPa 0,0 l/m 0 min 0 min 282 W/m 25,7 km/h (4 Bft) 97,87 %
02.04.2023 12:24 5,8 C 7,2 C 3,3 C 85 % 1021,2 hPa 0,0 l/m 2 min 0 min 327 W/m 38,6 km/h (5 Bft) 97,87 %
02.04.2023 12:26 5,9 C 7,2 C 3,3 C 86 % 1021,3 hPa 0,0 l/m 2 min 0 min 338 W/m 22,5 km/h (4 Bft) 95,74 %
02.04.2023 12:28 5,9 C 7,2 C 3,3 C 86 % 1021,2 hPa 0,0 l/m 0 min 0 min 280 W/m 41,8 km/h (6 Bft) 93,62 %
02.04.2023 12:30 5,9 C 7,2 C 3,3 C 85 % 1021,3 hPa 0,0 l/m 0 min 0 min 282 W/m 35,4 km/h (5 Bft) 97,87 %
02.04.2023 12:32 6,1 C 7,2 C 3,3 C 85 % 1021,4 hPa 0,0 l/m 0 min 0 min 302 W/m 35,4 km/h (5 Bft) 97,87 %
02.04.2023 12:34 6,1 C 7,2 C 3,9 C 85 % 1021,4 hPa 0,0 l/m 2 min 0 min 348 W/m 19,3 km/h (3 Bft) 97,83 %
02.04.2023 12:36 6,1 C 7,8 C 3,9 C 85 % 1021,5 hPa 0,0 l/m 2 min 0 min 368 W/m 22,5 km/h (4 Bft) 100,00 %
02.04.2023 12:38 6,2 C 7,8 C 3,9 C 85 % 1021,5 hPa 0,0 l/m 2 min 0 min 378 W/m 22,5 km/h (4 Bft) 97,87 %
02.04.2023 12:40 6,3 C 7,8 C 3,9 C 85 % 1021,5 hPa 0,0 l/m 0 min 0 min 304 W/m 32,2 km/h (5 Bft) 100,00 %
02.04.2023 12:42 6,3 C 7,8 C 3,9 C 85 % 1021,6 hPa 0,0 l/m 0 min 0 min 275 W/m 32,2 km/h (5 Bft) 95,74 %
02.04.2023 12:44 6,4 C 8,3 C 3,9 C 84 % 1021,6 hPa 0,0 l/m 0 min 0 min 295 W/m 16,1 km/h (3 Bft) 100,00 %
02.04.2023 12:46 6,5 C 8,3 C 4,4 C 85 % 1021,7 hPa 0,0 l/m 2 min 0 min 338 W/m 16,1 km/h (3 Bft) 97,87 %
02.04.2023 12:48 6,6 C 8,3 C 4,4 C 85 % 1021,7 hPa 0,0 l/m 0 min 0 min 309 W/m 12,9 km/h (3 Bft) 97,83 %
02.04.2023 12:50 6,7 C 8,3 C 4,4 C 85 % 1021,7 hPa 0,0 l/m 0 min 0 min 279 W/m 32,2 km/h (5 Bft) 97,87 %
02.04.2023 12:52 6,7 C 7,8 C 4,4 C 84 % 1021,8 hPa 0,0 l/m 0 min 0 min 311 W/m 25,7 km/h (4 Bft) 97,87 %
02.04.2023 12:54 6,7 C 7,8 C 3,9 C 84 % 1021,8 hPa 0,0 l/m 0 min 0 min 273 W/m 22,5 km/h (4 Bft) 97,87 %
02.04.2023 12:56 6,7 C 7,8 C 3,9 C 83 % 1021,9 hPa 0,0 l/m 0 min 0 min 276 W/m 16,1 km/h (3 Bft) 97,87 %
02.04.2023 12:58 6,7 C 8,3 C 4,4 C 83 % 1021,9 hPa 0,0 l/m 0 min 0 min 292 W/m 19,3 km/h (3 Bft) 95,74 %
02.04.2023 13:00 6,7 C 8,3 C 4,4 C 83 % 1021,9 hPa 0,0 l/m 0 min 0 min 290 W/m 25,7 km/h (4 Bft) 97,83 %
02.04.2023 13:02 6,7 C 8,3 C 3,9 C 83 % 1021,9 hPa 0,0 l/m 0 min 0 min 299 W/m 22,5 km/h (4 Bft) 97,87 %
02.04.2023 13:04 6,8 C 8,3 C 3,9 C 83 % 1022,0 hPa 0,0 l/m 0 min 0 min 295 W/m 9,7 km/h (2 Bft) 97,87 %
02.04.2023 13:06 6,8 C 7,8 C 3,9 C 83 % 1022,0 hPa 0,0 l/m 0 min 0 min 282 W/m 25,7 km/h (4 Bft) 96,61 %
02.04.2023 13:08 6,8 C 7,8 C 3,9 C 83 % 1022,1 hPa 0,0 l/m 0 min 0 min 295 W/m 29,0 km/h (5 Bft) 100,00 %
02.04.2023 13:10 6,7 C 7,8 C 3,9 C 83 % 1022,1 hPa 0,0 l/m 0 min 0 min 288 W/m 16,1 km/h (3 Bft) 95,74 %
02.04.2023 13:12 6,7 C 7,8 C 3,9 C 82 % 1022,2 hPa 0,0 l/m 0 min 0 min 297 W/m 35,4 km/h (5 Bft) 95,74 %
02.04.2023 13:14 6,7 C 7,8 C 3,9 C 82 % 1022,1 hPa 0,0 l/m 0 min 0 min 315 W/m 25,7 km/h (4 Bft) 97,83 %
02.04.2023 13:16 6,7 C 7,8 C 3,9 C 83 % 1022,1 hPa 0,0 l/m 0 min 0 min 328 W/m 16,1 km/h (3 Bft) 95,74 %
02.04.2023 13:18 6,7 C 7,8 C 4,4 C 83 % 1022,1 hPa 0,0 l/m 0 min 0 min 311 W/m 25,7 km/h (4 Bft) 97,87 %
02.04.2023 13:20 6,8 C 7,8 C 4,4 C 83 % 1022,1 hPa 0,0 l/m 0 min 0 min 313 W/m 41,8 km/h (6 Bft) 97,87 %
02.04.2023 13:22 6,8 C 7,8 C 3,9 C 82 % 1022,1 hPa 0,0 l/m 0 min 0 min 287 W/m 25,7 km/h (4 Bft) 95,74 %
02.04.2023 13:24 6,7 C 7,2 C 3,9 C 82 % 1022,1 hPa 0,0 l/m 0 min 0 min 247 W/m 29,0 km/h (5 Bft) 95,74 %
02.04.2023 13:26 6,7 C 7,8 C 3,9 C 82 % 1022,2 hPa 0,0 l/m 0 min 0 min 258 W/m 16,1 km/h (3 Bft) 95,74 %
02.04.2023 13:28 6,7 C 7,8 C 3,9 C 82 % 1022,2 hPa 0,0 l/m 0 min 0 min 278 W/m 22,5 km/h (4 Bft) 97,83 %
02.04.2023 13:30 6,7 C 7,8 C 3,9 C 83 % 1022,2 hPa 0,0 l/m 0 min 0 min 300 W/m 32,2 km/h (5 Bft) 97,87 %
02.04.2023 13:32 6,7 C 7,8 C 3,9 C 82 % 1022,3 hPa 0,0 l/m 0 min 0 min 305 W/m 25,7 km/h (4 Bft) 97,87 %
02.04.2023 13:34 6,7 C 7,8 C 3,9 C 82 % 1022,3 hPa 0,0 l/m 2 min 0 min 362 W/m 12,9 km/h (3 Bft) 97,87 %
02.04.2023 13:36 6,8 C 8,9 C 4,4 C 83 % 1022,2 hPa 0,0 l/m 2 min 0 min 459 W/m 22,5 km/h (4 Bft) 97,87 %
02.04.2023 13:38 6,8 C 9,4 C 4,4 C 83 % 1022,3 hPa 0,0 l/m 2 min 0 min 487 W/m 16,1 km/h (3 Bft) 97,87 %
02.04.2023 13:40 6,9 C 9,4 C 4,4 C 83 % 1022,3 hPa 0,0 l/m 2 min 0 min 427 W/m 25,7 km/h (4 Bft) 97,83 %
02.04.2023 13:42 7,1 C 10,0 C 5,0 C 83 % 1022,3 hPa 0,0 l/m 2 min 0 min 419 W/m 19,3 km/h (3 Bft) 97,87 %
02.04.2023 13:44 7,2 C 10,0 C 5,0 C 83 % 1022,3 hPa 0,0 l/m 2 min 0 min 417 W/m 22,5 km/h (4 Bft) 100,00 %
02.04.2023 13:46 7,3 C 10,0 C 5,0 C 83 % 1022,4 hPa 0,0 l/m 2 min 0 min 406 W/m 25,7 km/h (4 Bft) 100,00 %
02.04.2023 13:48 7,3 C 9,4 C 5,0 C 83 % 1022,4 hPa 0,0 l/m 2 min 0 min 405 W/m 22,5 km/h (4 Bft) 100,00 %
02.04.2023 13:50 7,4 C 10,0 C 5,0 C 82 % 1022,4 hPa 0,0 l/m 2 min 0 min 449 W/m 19,3 km/h (3 Bft) 95,74 %
02.04.2023 13:52 7,5 C 10,6 C 5,6 C 82 % 1022,5 hPa 0,0 l/m 2 min 0 min 476 W/m 16,1 km/h (3 Bft) 100,00 %
02.04.2023 13:54 7,6 C 10,6 C 5,0 C 83 % 1022,5 hPa 0,0 l/m 2 min 0 min 461 W/m 25,7 km/h (4 Bft) 100,00 %
02.04.2023 13:56 7,6 C 10,6 C 5,0 C 82 % 1022,6 hPa 0,0 l/m 2 min 0 min 434 W/m 25,7 km/h (4 Bft) 100,00 %
02.04.2023 13:58 7,5 C 10,6 C 5,0 C 81 % 1022,6 hPa 0,0 l/m 2 min 0 min 431 W/m 25,7 km/h (4 Bft) 100,00 %
02.04.2023 14:00 7,5 C 10,0 C 5,0 C 81 % 1022,6 hPa 0,0 l/m 2 min 0 min 438 W/m 32,2 km/h (5 Bft) 97,87 %
02.04.2023 14:02 7,4 C 9,4 C 4,4 C 80 % 1022,7 hPa 0,0 l/m 2 min 0 min 409 W/m 25,7 km/h (4 Bft) 97,87 %
02.04.2023 14:04 7,4 C 8,9 C 4,4 C 80 % 1022,7 hPa 0,0 l/m 2 min 0 min 351 W/m 25,7 km/h (4 Bft) 100,00 %
02.04.2023 14:06 7,4 C 8,3 C 4,4 C 80 % 1022,8 hPa 0,0 l/m 0 min 0 min 292 W/m 19,3 km/h (3 Bft) 98,28 %
02.04.2023 14:08 7,3 C 8,3 C 4,4 C 80 % 1022,8 hPa 0,0 l/m 0 min 0 min 288 W/m 25,7 km/h (4 Bft) 97,14 %
02.04.2023 14:10 7,3 C 8,3 C 4,4 C 80 % 1022,9 hPa 0,0 l/m 0 min 0 min 306 W/m 22,5 km/h (4 Bft) 97,87 %
02.04.2023 14:12 7,2 C 8,3 C 3,9 C 80 % 1022,9 hPa 0,0 l/m 0 min 0 min 317 W/m 29,0 km/h (5 Bft) 97,87 %
02.04.2023 14:14 7,2 C 8,3 C 3,9 C 80 % 1022,9 hPa 0,0 l/m 0 min 0 min 304 W/m 25,7 km/h (4 Bft) 97,87 %
02.04.2023 14:16 7,1 C 8,3 C 3,9 C 80 % 1022,9 hPa 0,0 l/m 0 min 0 min 264 W/m 25,7 km/h (4 Bft) 97,87 %
02.04.2023 14:18 7,1 C 8,3 C 3,9 C 80 % 1023,0 hPa 0,0 l/m 0 min 0 min 292 W/m 25,7 km/h (4 Bft) 97,87 %
02.04.2023 14:20 7,0 C 8,3 C 3,9 C 81 % 1023,0 hPa 0,0 l/m 0 min 0 min 321 W/m 22,5 km/h (4 Bft) 95,65 %
02.04.2023 14:22 7,0 C 8,3 C 3,9 C 81 % 1023,0 hPa 0,0 l/m 0 min 0 min 269 W/m 25,7 km/h (4 Bft) 95,74 %
02.04.2023 14:24 7,0 C 8,3 C 3,9 C 81 % 1023,0 hPa 0,0 l/m 0 min 0 min 254 W/m 35,4 km/h (5 Bft) 91,49 %
02.04.2023 14:26 6,9 C 8,3 C 3,9 C 81 % 1023,0 hPa 0,0 l/m 0 min 0 min 264 W/m 16,1 km/h (3 Bft) 95,74 %
02.04.2023 14:28 7,0 C 8,3 C 3,9 C 81 % 1023,1 hPa 0,0 l/m 0 min 0 min 275 W/m 16,1 km/h (3 Bft) 93,62 %
02.04.2023 14:30 7,0 C 8,3 C 3,9 C 81 % 1023,1 hPa 0,0 l/m 0 min 0 min 308 W/m 29,0 km/h (5 Bft) 93,62 %
02.04.2023 14:32 7,0 C 8,3 C 3,9 C 80 % 1023,1 hPa 0,0 l/m 0 min 0 min 301 W/m 16,1 km/h (3 Bft) 93,62 %
02.04.2023 14:34 7,1 C 8,3 C 4,4 C 81 % 1023,1 hPa 0,0 l/m 0 min 0 min 270 W/m 9,7 km/h (2 Bft) 93,48 %
02.04.2023 14:36 7,1 C 8,3 C 4,4 C 81 % 1023,1 hPa 0,0 l/m 0 min 0 min 265 W/m 32,2 km/h (5 Bft) 95,74 %
02.04.2023 14:38 7,1 C 8,3 C 4,4 C 80 % 1023,1 hPa 0,0 l/m 0 min 0 min 277 W/m 25,7 km/h (4 Bft) 97,87 %
02.04.2023 14:40 7,1 C 8,3 C 4,4 C 80 % 1023,1 hPa 0,0 l/m 0 min 0 min 281 W/m 22,5 km/h (4 Bft) 95,74 %
02.04.2023 14:42 7,1 C 8,3 C 3,9 C 80 % 1023,1 hPa 0,0 l/m 0 min 0 min 283 W/m 29,0 km/h (5 Bft) 97,87 %
02.04.2023 14:44 7,1 C 7,8 C 3,9 C 79 % 1023,1 hPa 0,0 l/m 0 min 0 min 245 W/m 35,4 km/h (5 Bft) 95,74 %
02.04.2023 14:46 7,0 C 7,8 C 3,9 C 80 % 1023,1 hPa 0,0 l/m 0 min 0 min 243 W/m 19,3 km/h (3 Bft) 97,83 %
02.04.2023 14:48 6,9 C 8,3 C 3,3 C 80 % 1023,1 hPa 0,0 l/m 0 min 0 min 244 W/m 22,5 km/h (4 Bft) 97,87 %
02.04.2023 14:50 6,9 C 9,4 C 3,3 C 80 % 1023,2 hPa 0,0 l/m 0 min 0 min 248 W/m 19,3 km/h (3 Bft) 97,87 %
02.04.2023 14:52 6,9 C 10,0 C 3,9 C 80 % 1023,3 hPa 0,0 l/m 2 min 0 min 546 W/m 19,3 km/h (3 Bft) 95,74 %
02.04.2023 14:54 7,0 C 10,0 C 3,9 C 80 % 1023,3 hPa 0,0 l/m 2 min 0 min 367 W/m 22,5 km/h (4 Bft) 95,74 %
02.04.2023 14:56 7,1 C 10,0 C 3,9 C 80 % 1023,4 hPa 0,0 l/m 2 min 0 min 329 W/m 22,5 km/h (4 Bft) 97,87 %
02.04.2023 14:58 7,1 C 10,0 C 3,9 C 80 % 1023,4 hPa 0,0 l/m 0 min 0 min 312 W/m 16,1 km/h (3 Bft) 97,87 %
02.04.2023 15:00 7,2 C 9,4 C 4,4 C 80 % 1023,5 hPa 0,0 l/m 0 min 0 min 304 W/m 32,2 km/h (5 Bft) 97,83 %
02.04.2023 15:02 7,2 C 8,9 C 3,9 C 79 % 1023,5 hPa 0,0 l/m 2 min 0 min 326 W/m 32,2 km/h (5 Bft) 95,74 %
02.04.2023 15:04 7,2 C 8,3 C 3,9 C 79 % 1023,5 hPa 0,0 l/m 0 min 0 min 303 W/m 35,4 km/h (5 Bft) 97,87 %
02.04.2023 15:06 7,2 C 8,3 C 3,9 C 79 % 1023,6 hPa 0,0 l/m 0 min 0 min 314 W/m 22,5 km/h (4 Bft) 96,61 %
02.04.2023 15:08 7,2 C 7,8 C 3,9 C 78 % 1023,6 hPa 0,0 l/m 0 min 0 min 271 W/m 25,7 km/h (4 Bft) 94,29 %
02.04.2023 15:10 7,1 C 8,3 C 3,9 C 78 % 1023,6 hPa 0,0 l/m 0 min 0 min 263 W/m 19,3 km/h (3 Bft) 97,87 %
02.04.2023 15:12 7,1 C 8,3 C 3,9 C 79 % 1023,6 hPa 0,0 l/m 0 min 0 min 241 W/m 29,0 km/h (5 Bft) 93,62 %
02.04.2023 15:14 7,1 C 7,8 C 3,9 C 79 % 1023,6 hPa 0,0 l/m 0 min 0 min 214 W/m 29,0 km/h (5 Bft) 100,00 %
02.04.2023 15:16 7,1 C 7,8 C 3,9 C 79 % 1023,7 hPa 0,0 l/m 0 min 0 min 238 W/m 16,1 km/h (3 Bft) 97,87 %
02.04.2023 15:18 7,1 C 8,3 C 3,9 C 79 % 1023,7 hPa 0,0 l/m 0 min 0 min 253 W/m 29,0 km/h (5 Bft) 100,00 %
02.04.2023 15:20 7,1 C 8,3 C 3,9 C 79 % 1023,8 hPa 0,0 l/m 0 min 0 min 252 W/m 22,5 km/h (4 Bft) 100,00 %
02.04.2023 15:22 7,1 C 8,3 C 3,9 C 79 % 1023,8 hPa 0,0 l/m 0 min 0 min 277 W/m 16,1 km/h (3 Bft) 100,00 %
02.04.2023 15:24 7,1 C 8,3 C 3,9 C 79 % 1023,8 hPa 0,0 l/m 0 min 0 min 279 W/m 16,1 km/h (3 Bft) 97,87 %
02.04.2023 15:26 7,1 C 8,3 C 3,9 C 80 % 1023,8 hPa 0,0 l/m 0 min 0 min 268 W/m 19,3 km/h (3 Bft) 97,87 %
02.04.2023 15:28 7,2 C 8,3 C 3,9 C 80 % 1023,8 hPa 0,0 l/m 0 min 0 min 277 W/m 19,3 km/h (3 Bft) 100,00 %
02.04.2023 15:30 7,2 C 8,9 C 3,9 C 80 % 1023,9 hPa 0,0 l/m 0 min 0 min 291 W/m 16,1 km/h (3 Bft) 100,00 %
02.04.2023 15:32 7,2 C 8,9 C 3,9 C 79 % 1023,8 hPa 0,0 l/m 0 min 0 min 285 W/m 19,3 km/h (3 Bft) 100,00 %
02.04.2023 15:34 7,1 C 8,3 C 3,9 C 79 % 1023,8 hPa 0,0 l/m 0 min 0 min 272 W/m 16,1 km/h (3 Bft) 100,00 %
02.04.2023 15:36 7,2 C 8,9 C 3,9 C 80 % 1023,9 hPa 0,0 l/m 2 min 0 min 310 W/m 16,1 km/h (3 Bft) 100,00 %
02.04.2023 15:38 7,1 C 8,3 C 3,9 C 79 % 1023,8 hPa 0,0 l/m 2 min 0 min 338 W/m 25,7 km/h (4 Bft) 97,87 %
02.04.2023 15:40 7,2 C 8,3 C 3,9 C 79 % 1023,9 hPa 0,0 l/m 2 min 0 min 319 W/m 25,7 km/h (4 Bft) 100,00 %
02.04.2023 15:42 7,1 C 8,3 C 3,9 C 78 % 1023,9 hPa 0,0 l/m 2 min 0 min 315 W/m 29,0 km/h (5 Bft) 97,83 %
02.04.2023 15:44 7,1 C 8,3 C 3,9 C 78 % 1023,9 hPa 0,0 l/m 2 min 0 min 309 W/m 16,1 km/h (3 Bft) 100,00 %
02.04.2023 15:46 7,1 C 8,3 C 3,9 C 79 % 1023,9 hPa 0,0 l/m 0 min 0 min 270 W/m 22,5 km/h (4 Bft) 97,87 %
02.04.2023 15:48 7,1 C 8,3 C 3,9 C 79 % 1024,0 hPa 0,0 l/m 0 min 0 min 227 W/m 19,3 km/h (3 Bft) 95,74 %
02.04.2023 15:50 7,1 C 7,8 C 3,9 C 78 % 1024,0 hPa 0,0 l/m 0 min 0 min 197 W/m 29,0 km/h (5 Bft) 100,00 %
02.04.2023 15:52 7,1 C 7,8 C 3,3 C 78 % 1024,0 hPa 0,0 l/m 0 min 0 min 185 W/m 29,0 km/h (5 Bft) 100,00 %
02.04.2023 15:54 7,1 C 7,8 C 3,3 C 78 % 1024,1 hPa 0,0 l/m 0 min 0 min 184 W/m 29,0 km/h (5 Bft) 97,87 %
02.04.2023 15:56 7,0 C 7,8 C 3,3 C 78 % 1024,1 hPa 0,0 l/m 0 min 0 min 194 W/m 16,1 km/h (3 Bft) 97,83 %
02.04.2023 15:58 6,9 C 7,8 C 3,3 C 78 % 1024,1 hPa 0,0 l/m 0 min 0 min 202 W/m 25,7 km/h (4 Bft) 97,87 %
02.04.2023 16:00 6,9 C 7,8 C 3,3 C 79 % 1024,2 hPa 0,0 l/m 0 min 0 min 199 W/m 12,9 km/h (3 Bft) 97,87 %
02.04.2023 16:02 6,9 C 7,8 C 3,3 C 79 % 1024,3 hPa 0,0 l/m 0 min 0 min 200 W/m 9,7 km/h (2 Bft) 95,74 %
02.04.2023 16:04 6,9 C 7,8 C 3,9 C 79 % 1024,3 hPa 0,0 l/m 0 min 0 min 203 W/m 19,3 km/h (3 Bft) 95,74 %
02.04.2023 16:06 7,0 C 8,3 C 3,9 C 80 % 1024,4 hPa 0,0 l/m 0 min 0 min 211 W/m 25,7 km/h (4 Bft) 96,55 %
02.04.2023 16:08 7,0 C 8,3 C 3,9 C 79 % 1024,4 hPa 0,0 l/m 0 min 0 min 258 W/m 22,5 km/h (4 Bft) 94,29 %
02.04.2023 16:10 7,1 C 8,9 C 3,9 C 79 % 1024,4 hPa 0,0 l/m 2 min 0 min 311 W/m 16,1 km/h (3 Bft) 95,74 %
02.04.2023 16:12 7,1 C 9,4 C 3,9 C 80 % 1024,3 hPa 0,0 l/m 2 min 0 min 332 W/m 16,1 km/h (3 Bft) 95,74 %
02.04.2023 16:14 7,2 C 10,6 C 4,4 C 80 % 1024,3 hPa 0,0 l/m 2 min 0 min 283 W/m 12,9 km/h (3 Bft) 95,74 %
02.04.2023 16:16 7,3 C 11,7 C 4,4 C 79 % 1024,4 hPa 0,0 l/m 2 min 0 min 278 W/m 25,7 km/h (4 Bft) 95,74 %
02.04.2023 16:18 7,4 C 12,2 C 5,0 C 79 % 1024,3 hPa 0,0 l/m 2 min 0 min 278 W/m 19,3 km/h (3 Bft) 95,74 %
02.04.2023 16:20 7,7 C 13,9 C 5,6 C 79 % 1024,4 hPa 0,0 l/m 2 min 0 min 550 W/m 19,3 km/h (3 Bft) 95,74 %
02.04.2023 16:22 8,0 C 13,9 C 5,6 C 78 % 1024,4 hPa 0,0 l/m 2 min 0 min 547 W/m 22,5 km/h (4 Bft) 95,65 %
02.04.2023 16:24 8,2 C 12,8 C 5,6 C 77 % 1024,4 hPa 0,0 l/m 2 min 0 min 494 W/m 16,1 km/h (3 Bft) 95,74 %
02.04.2023 16:26 8,3 C 11,7 C 5,6 C 76 % 1024,4 hPa 0,0 l/m 2 min 0 min 324 W/m 16,1 km/h (3 Bft) 93,62 %
02.04.2023 16:28 8,3 C 11,1 C 5,0 C 76 % 1024,4 hPa 0,0 l/m 2 min 0 min 358 W/m 16,1 km/h (3 Bft) 93,62 %
02.04.2023 16:30 8,3 C 10,6 C 5,0 C 75 % 1024,4 hPa 0,0 l/m 2 min 0 min 316 W/m 22,5 km/h (4 Bft) 95,74 %
02.04.2023 16:32 8,2 C 10,6 C 5,0 C 75 % 1024,4 hPa 0,0 l/m 2 min 0 min 303 W/m 9,7 km/h (2 Bft) 91,49 %
02.04.2023 16:34 8,1 C 10,0 C 4,4 C 74 % 1024,5 hPa 0,0 l/m 2 min 0 min 263 W/m 22,5 km/h (4 Bft) 95,74 %
02.04.2023 16:36 7,9 C 10,0 C 4,4 C 74 % 1024,5 hPa 0,0 l/m 2 min 0 min 285 W/m 19,3 km/h (3 Bft) 93,48 %
02.04.2023 16:38 7,8 C 9,4 C 4,4 C 74 % 1024,6 hPa 0,0 l/m 0 min 0 min 234 W/m 19,3 km/h (3 Bft) 95,74 %
02.04.2023 16:40 7,7 C 10,6 C 4,4 C 75 % 1024,6 hPa 0,0 l/m 0 min 0 min 235 W/m 16,1 km/h (3 Bft) 91,49 %
02.04.2023 16:42 7,7 C 11,1 C 4,4 C 76 % 1024,6 hPa 0,0 l/m 2 min 0 min 435 W/m 16,1 km/h (3 Bft) 93,62 %
02.04.2023 16:44 7,7 C 11,7 C 5,0 C 75 % 1024,6 hPa 0,0 l/m 2 min 0 min 422 W/m 12,9 km/h (3 Bft) 93,62 %
02.04.2023 16:46 7,8 C 12,8 C 5,6 C 75 % 1024,6 hPa 0,0 l/m 2 min 0 min 378 W/m 16,1 km/h (3 Bft) 97,87 %
02.04.2023 16:48 7,9 C 11,7 C 5,0 C 75 % 1024,6 hPa 0,0 l/m 2 min 0 min 290 W/m 12,9 km/h (3 Bft) 97,87 %
02.04.2023 16:50 8,0 C 11,7 C 5,0 C 74 % 1024,7 hPa 0,0 l/m 2 min 0 min 304 W/m 16,1 km/h (3 Bft) 97,83 %
02.04.2023 16:52 8,1 C 11,1 C 5,0 C 74 % 1024,6 hPa 0,0 l/m 2 min 0 min 261 W/m 16,1 km/h (3 Bft) 100,00 %
02.04.2023 16:54 8,1 C 10,6 C 5,0 C 74 % 1024,7 hPa 0,0 l/m 2 min 0 min 329 W/m 16,1 km/h (3 Bft) 100,00 %
02.04.2023 16:56 8,1 C 10,6 C 5,0 C 74 % 1024,7 hPa 0,0 l/m 2 min 0 min 293 W/m 16,1 km/h (3 Bft) 91,49 %
02.04.2023 16:58 8,1 C 10,6 C 5,0 C 74 % 1024,7 hPa 0,0 l/m 2 min 0 min 263 W/m 19,3 km/h (3 Bft) 100,00 %
02.04.2023 17:00 8,1 C 10,6 C 5,0 C 74 % 1024,7 hPa 0,0 l/m 2 min 0 min 269 W/m 16,1 km/h (3 Bft) 100,00 %
02.04.2023 17:02 8,1 C 10,6 C 5,0 C 74 % 1024,7 hPa 0,0 l/m 2 min 0 min 255 W/m 19,3 km/h (3 Bft) 100,00 %
02.04.2023 17:04 8,1 C 10,0 C 5,0 C 74 % 1024,7 hPa 0,0 l/m 2 min 0 min 242 W/m 9,7 km/h (2 Bft) 97,87 %
02.04.2023 17:06 8,1 C 10,0 C 5,0 C 74 % 1024,7 hPa 0,0 l/m 0 min 0 min 204 W/m 19,3 km/h (3 Bft) 95,74 %
02.04.2023 17:08 8,1 C 10,0 C 4,4 C 74 % 1024,7 hPa 0,0 l/m 0 min 0 min 171 W/m 12,9 km/h (3 Bft) 91,49 %
02.04.2023 17:10 8,1 C 10,0 C 4,4 C 75 % 1024,7 hPa 0,0 l/m 2 min 0 min 224 W/m 19,3 km/h (3 Bft) 97,87 %
02.04.2023 17:12 8,1 C 11,7 C 5,0 C 75 % 1024,7 hPa 0,0 l/m 2 min 0 min 379 W/m 12,9 km/h (3 Bft) 95,74 %
02.04.2023 17:14 8,2 C 12,2 C 5,0 C 74 % 1024,7 hPa 0,0 l/m 2 min 0 min 571 W/m 9,7 km/h (2 Bft) 91,49 %
02.04.2023 17:16 8,3 C 12,8 C 5,0 C 74 % 1024,7 hPa 0,0 l/m 2 min 0 min 586 W/m 9,7 km/h (2 Bft) 97,83 %
02.04.2023 17:18 8,5 C 13,9 C 5,6 C 74 % 1024,6 hPa 0,0 l/m 2 min 0 min 597 W/m 16,1 km/h (3 Bft) 95,74 %
02.04.2023 17:20 8,7 C 13,3 C 5,6 C 74 % 1024,7 hPa 0,0 l/m 2 min 0 min 592 W/m 12,9 km/h (3 Bft) 95,74 %
02.04.2023 17:22 8,8 C 12,2 C 5,6 C 73 % 1024,7 hPa 0,0 l/m 2 min 0 min 469 W/m 9,7 km/h (2 Bft) 59,57 %
02.04.2023 17:24 8,8 C 11,1 C 5,6 C 73 % 1024,7 hPa 0,0 l/m 0 min 0 min 178 W/m 9,7 km/h (2 Bft) 53,19 %
02.04.2023 17:26 8,8 C 10,6 C 5,6 C 72 % 1024,7 hPa 0,0 l/m 0 min 0 min 175 W/m 12,9 km/h (3 Bft) 53,19 %
02.04.2023 17:28 8,8 C 10,0 C 5,0 C 72 % 1024,7 hPa 0,0 l/m 0 min 0 min 174 W/m 9,7 km/h (2 Bft) 55,32 %
02.04.2023 17:30 8,7 C 10,0 C 5,0 C 71 % 1024,7 hPa 0,0 l/m 0 min 0 min 193 W/m 12,9 km/h (3 Bft) 65,22 %
02.04.2023 17:32 8,6 C 10,0 C 5,0 C 72 % 1024,7 hPa 0,0 l/m 2 min 0 min 213 W/m 16,1 km/h (3 Bft) 85,11 %
02.04.2023 17:34 8,5 C 9,4 C 5,0 C 73 % 1024,7 hPa 0,0 l/m 2 min 0 min 199 W/m 16,1 km/h (3 Bft) 93,62 %
02.04.2023 17:36 8,5 C 9,4 C 5,0 C 73 % 1024,7 hPa 0,0 l/m 0 min 0 min 181 W/m 12,9 km/h (3 Bft) 91,49 %
02.04.2023 17:38 8,4 C 9,4 C 5,0 C 73 % 1024,7 hPa 0,0 l/m 0 min 0 min 167 W/m 9,7 km/h (2 Bft) 93,62 %
02.04.2023 17:40 8,4 C 9,4 C 5,0 C 73 % 1024,7 hPa 0,0 l/m 0 min 0 min 146 W/m 12,9 km/h (3 Bft) 95,74 %
02.04.2023 17:42 8,4 C 8,9 C 4,4 C 73 % 1024,8 hPa 0,0 l/m 0 min 0 min 121 W/m 19,3 km/h (3 Bft) 95,74 %
02.04.2023 17:44 8,3 C 8,9 C 4,4 C 72 % 1024,8 hPa 0,0 l/m 0 min 0 min 118 W/m 16,1 km/h (3 Bft) 95,65 %
02.04.2023 17:46 8,2 C 8,9 C 4,4 C 72 % 1024,8 hPa 0,0 l/m 0 min 0 min 140 W/m 12,9 km/h (3 Bft) 93,62 %
02.04.2023 17:48 8,2 C 10,0 C 4,4 C 72 % 1024,9 hPa 0,0 l/m 2 min 0 min 185 W/m 16,1 km/h (3 Bft) 97,87 %
02.04.2023 17:50 8,3 C 12,2 C 5,0 C 73 % 1024,9 hPa 0,0 l/m 2 min 0 min 376 W/m 12,9 km/h (3 Bft) 95,74 %
02.04.2023 17:52 8,4 C 12,8 C 5,6 C 72 % 1024,9 hPa 0,0 l/m 2 min 0 min 467 W/m 9,7 km/h (2 Bft) 95,74 %
02.04.2023 17:54 8,6 C 12,2 C 5,6 C 72 % 1024,9 hPa 0,0 l/m 2 min 0 min 462 W/m 9,7 km/h (2 Bft) 95,74 %
02.04.2023 17:56 8,6 C 11,1 C 5,6 C 71 % 1024,9 hPa 0,0 l/m 2 min 0 min 274 W/m 19,3 km/h (3 Bft) 93,62 %
02.04.2023 17:58 8,7 C 10,0 C 5,0 C 71 % 1025,0 hPa 0,0 l/m 0 min 0 min 146 W/m 22,5 km/h (4 Bft) 95,65 %
02.04.2023 18:00 8,6 C 9,4 C 5,0 C 71 % 1025,0 hPa 0,0 l/m 0 min 0 min 105 W/m 12,9 km/h (3 Bft) 95,74 %
02.04.2023 18:02 8,6 C 8,9 C 4,4 C 71 % 1025,1 hPa 0,0 l/m 0 min 0 min 84 W/m 12,9 km/h (3 Bft) 57,45 %
02.04.2023 18:04 8,4 C 8,3 C 4,4 C 71 % 1025,1 hPa 0,0 l/m 0 min 0 min 76 W/m 16,1 km/h (3 Bft) 25,53 %
02.04.2023 18:07 8,2 C 9,4 C 4,4 C 72 % 1025,1 hPa 0,0 l/m 0 min 0 min 93 W/m 12,9 km/h (3 Bft) 75,32 %
02.04.2023 18:08 8,2 C 10,0 C 4,4 C 73 % 1025,1 hPa 0,0 l/m 1 min 0 min 289 W/m 12,9 km/h (3 Bft) 100,00 %
02.04.2023 18:12 8,3 C 10,6 C 5,0 C 72 % 1025,1 hPa 0,0 l/m 4 min 0 min 293 W/m 16,1 km/h (3 Bft) 98,08 %
02.04.2023 18:14 8,4 C 10,6 C 5,6 C 72 % 1025,2 hPa 0,0 l/m 2 min 0 min 298 W/m 19,3 km/h (3 Bft) 95,74 %
02.04.2023 18:16 8,5 C 10,6 C 5,6 C 71 % 1025,2 hPa 0,0 l/m 2 min 0 min 255 W/m 12,9 km/h (3 Bft) 97,87 %
02.04.2023 18:18 8,6 C 10,6 C 5,6 C 71 % 1025,2 hPa 0,0 l/m 2 min 0 min 234 W/m 9,7 km/h (2 Bft) 100,00 %
02.04.2023 18:20 8,6 C 10,6 C 5,6 C 71 % 1025,2 hPa 0,0 l/m 2 min 0 min 306 W/m 12,9 km/h (3 Bft) 95,74 %
02.04.2023 18:22 8,7 C 11,1 C 5,6 C 71 % 1025,3 hPa 0,0 l/m 2 min 0 min 321 W/m 6,4 km/h (2 Bft) 93,62 %
02.04.2023 18:24 8,8 C 11,7 C 5,6 C 72 % 1025,3 hPa 0,0 l/m 2 min 0 min 309 W/m 6,4 km/h (2 Bft) 95,65 %
02.04.2023 18:26 8,9 C 11,1 C 5,6 C 72 % 1025,3 hPa 0,0 l/m 2 min 0 min 206 W/m 16,1 km/h (3 Bft) 97,87 %
02.04.2023 18:28 9,0 C 10,6 C 5,6 C 71 % 1025,3 hPa 0,0 l/m 2 min 0 min 138 W/m 16,1 km/h (3 Bft) 95,74 %
02.04.2023 18:30 8,9 C 10,0 C 5,0 C 70 % 1025,4 hPa 0,0 l/m 0 min 0 min 103 W/m 16,1 km/h (3 Bft) 97,87 %
02.04.2023 18:32 8,8 C 8,9 C 4,4 C 70 % 1025,4 hPa 0,0 l/m 0 min 0 min 74 W/m 22,5 km/h (4 Bft) 97,87 %
02.04.2023 18:34 8,6 C 8,3 C 4,4 C 70 % 1025,4 hPa 0,0 l/m 0 min 0 min 51 W/m 12,9 km/h (3 Bft) 91,49 %
02.04.2023 18:36 8,4 C 7,8 C 3,9 C 70 % 1025,4 hPa 0,0 l/m 0 min 0 min 40 W/m 16,1 km/h (3 Bft) 95,74 %
02.04.2023 18:38 8,2 C 7,8 C 3,9 C 71 % 1025,5 hPa 0,0 l/m 0 min 0 min 37 W/m 16,1 km/h (3 Bft) 97,83 %
02.04.2023 18:40 8,1 C 7,2 C 3,3 C 71 % 1025,5 hPa 0,0 l/m 0 min 0 min 39 W/m 9,7 km/h (2 Bft) 97,87 %
02.04.2023 18:42 7,8 C 7,2 C 3,3 C 71 % 1025,6 hPa 0,0 l/m 0 min 0 min 48 W/m 9,7 km/h (2 Bft) 91,49 %
02.04.2023 18:44 7,7 C 7,8 C 3,3 C 72 % 1025,6 hPa 0,0 l/m 0 min 0 min 63 W/m 9,7 km/h (2 Bft) 97,87 %
02.04.2023 18:46 7,7 C 8,3 C 3,9 C 72 % 1025,6 hPa 0,0 l/m 2 min 0 min 158 W/m 6,4 km/h (2 Bft) 95,74 %
02.04.2023 18:48 7,6 C 9,4 C 4,4 C 73 % 1025,6 hPa 0,0 l/m 2 min 0 min 198 W/m 12,9 km/h (3 Bft) 97,87 %
02.04.2023 18:50 7,7 C 10,0 C 5,0 C 73 % 1025,7 hPa 0,0 l/m 2 min 0 min 198 W/m 12,9 km/h (3 Bft) 93,62 %
02.04.2023 18:52 7,8 C 10,0 C 5,0 C 73 % 1025,6 hPa 0,0 l/m 2 min 0 min 175 W/m 16,1 km/h (3 Bft) 95,65 %
02.04.2023 18:54 7,9 C 9,4 C 5,0 C 73 % 1025,7 hPa 0,0 l/m 2 min 0 min 96 W/m 16,1 km/h (3 Bft) 95,74 %
02.04.2023 18:56 8,1 C 9,4 C 5,0 C 73 % 1025,7 hPa 0,0 l/m 0 min 0 min 78 W/m 19,3 km/h (3 Bft) 93,62 %
02.04.2023 18:58 8,1 C 8,9 C 4,4 C 72 % 1025,7 hPa 0,0 l/m 0 min 0 min 72 W/m 9,7 km/h (2 Bft) 95,74 %
02.04.2023 19:00 8,0 C 8,3 C 4,4 C 72 % 1025,7 hPa 0,0 l/m 0 min 0 min 71 W/m 9,7 km/h (2 Bft) 97,87 %
02.04.2023 19:02 7,9 C 8,3 C 4,4 C 73 % 1025,8 hPa 0,0 l/m 0 min 0 min 65 W/m 9,7 km/h (2 Bft) 93,62 %
02.04.2023 19:04 7,9 C 8,3 C 3,9 C 73 % 1025,8 hPa 0,0 l/m 0 min 0 min 57 W/m 12,9 km/h (3 Bft) 93,62 %
02.04.2023 19:06 7,9 C 7,8 C 3,9 C 73 % 1025,9 hPa 0,0 l/m 0 min 0 min 52 W/m 12,9 km/h (3 Bft) 93,22 %
02.04.2023 19:08 7,9 C 7,8 C 3,9 C 73 % 1026,0 hPa 0,0 l/m 0 min 0 min 49 W/m 12,9 km/h (3 Bft) 97,14 %
02.04.2023 19:10 7,8 C 7,2 C 3,9 C 73 % 1026,0 hPa 0,0 l/m 0 min 0 min 42 W/m 12,9 km/h (3 Bft) 87,23 %
02.04.2023 19:12 7,7 C 7,2 C 3,3 C 73 % 1026,0 hPa 0,0 l/m 0 min 0 min 33 W/m 9,7 km/h (2 Bft) 91,49 %
02.04.2023 19:14 7,6 C 7,2 C 3,3 C 73 % 1026,0 hPa 0,0 l/m 0 min 0 min 29 W/m 9,7 km/h (2 Bft) 95,65 %
02.04.2023 19:16 7,6 C 6,7 C 3,3 C 73 % 1026,1 hPa 0,0 l/m 0 min 0 min 28 W/m 6,4 km/h (2 Bft) 97,87 %
02.04.2023 19:18 7,4 C 6,7 C 3,3 C 74 % 1026,1 hPa 0,0 l/m 0 min 0 min 28 W/m 6,4 km/h (2 Bft) 95,74 %
02.04.2023 19:20 7,4 C 6,7 C 2,8 C 75 % 1026,1 hPa 0,0 l/m 0 min 0 min 29 W/m 9,7 km/h (2 Bft) 95,74 %
02.04.2023 19:22 7,3 C 6,7 C 2,8 C 75 % 1026,1 hPa 0,0 l/m 0 min 0 min 31 W/m 9,7 km/h (2 Bft) 93,62 %
02.04.2023 19:24 7,3 C 6,1 C 2,8 C 75 % 1026,2 hPa 0,0 l/m 0 min 0 min 33 W/m 9,7 km/h (2 Bft) 97,87 %
02.04.2023 19:26 7,2 C 6,1 C 2,8 C 75 % 1026,2 hPa 0,0 l/m 0 min 0 min 33 W/m 9,7 km/h (2 Bft) 95,65 %
02.04.2023 19:28 7,1 C 6,1 C 2,8 C 75 % 1026,2 hPa 0,0 l/m 0 min 0 min 30 W/m 12,9 km/h (3 Bft) 95,74 %
02.04.2023 19:30 7,1 C 6,1 C 2,8 C 75 % 1026,2 hPa 0,0 l/m 0 min 0 min 30 W/m 9,7 km/h (2 Bft) 100,00 %
02.04.2023 19:32 7,1 C 6,1 C 2,8 C 76 % 1026,3 hPa 0,0 l/m 0 min 0 min 30 W/m 6,4 km/h (2 Bft) 100,00 %
02.04.2023 19:34 7,0 C 6,1 C 2,8 C 76 % 1026,3 hPa 0,0 l/m 0 min 0 min 30 W/m 9,7 km/h (2 Bft) 97,87 %
02.04.2023 19:36 7,0 C 6,1 C 2,8 C 76 % 1026,3 hPa 0,0 l/m 0 min 0 min 30 W/m 16,1 km/h (3 Bft) 100,00 %
02.04.2023 19:38 6,9 C 6,1 C 2,8 C 76 % 1026,4 hPa 0,0 l/m 0 min 0 min 26 W/m 6,4 km/h (2 Bft) 100,00 %
02.04.2023 19:40 6,9 C 6,1 C 2,8 C 76 % 1026,4 hPa 0,0 l/m 0 min 0 min 24 W/m 9,7 km/h (2 Bft) 100,00 %
02.04.2023 19:42 6,9 C 6,1 C 2,8 C 77 % 1026,4 hPa 0,0 l/m 0 min 0 min 21 W/m 19,3 km/h (3 Bft) 100,00 %
02.04.2023 19:44 6,9 C 6,1 C 2,8 C 77 % 1026,5 hPa 0,0 l/m 0 min 0 min 21 W/m 25,7 km/h (4 Bft) 100,00 %
02.04.2023 19:46 6,9 C 6,7 C 2,8 C 76 % 1026,5 hPa 0,0 l/m 0 min 0 min 19 W/m 22,5 km/h (4 Bft) 100,00 %
02.04.2023 19:48 6,9 C 6,7 C 2,8 C 76 % 1026,5 hPa 0,0 l/m 0 min 0 min 17 W/m 12,9 km/h (3 Bft) 100,00 %
02.04.2023 19:50 6,9 C 6,1 C 2,8 C 75 % 1026,6 hPa 0,0 l/m 0 min 0 min 15 W/m 16,1 km/h (3 Bft) 100,00 %
02.04.2023 19:52 6,9 C 6,1 C 2,8 C 75 % 1026,5 hPa 0,0 l/m 0 min 0 min 14 W/m 16,1 km/h (3 Bft) 100,00 %
02.04.2023 19:54 6,9 C 6,1 C 2,8 C 75 % 1026,6 hPa 0,0 l/m 0 min 0 min 13 W/m 12,9 km/h (3 Bft) 100,00 %
02.04.2023 19:56 6,8 C 6,1 C 2,8 C 75 % 1026,6 hPa 0,0 l/m 0 min 0 min 11 W/m 16,1 km/h (3 Bft) 100,00 %
02.04.2023 19:58 6,8 C 6,1 C 2,8 C 74 % 1026,6 hPa 0,0 l/m 0 min 0 min 9 W/m 19,3 km/h (3 Bft) 100,00 %
02.04.2023 20:00 6,8 C 6,1 C 2,8 C 74 % 1026,7 hPa 0,0 l/m 0 min 0 min 8 W/m 22,5 km/h (4 Bft) 100,00 %
02.04.2023 20:02 6,8 C 6,1 C 2,8 C 74 % 1026,7 hPa 0,0 l/m 0 min 0 min 7 W/m 22,5 km/h (4 Bft) 97,87 %
02.04.2023 20:04 6,7 C 6,1 C 2,2 C 74 % 1026,8 hPa 0,0 l/m 0 min 0 min 6 W/m 19,3 km/h (3 Bft) 100,00 %
02.04.2023 20:06 6,7 C 5,6 C 2,2 C 74 % 1026,8 hPa 0,0 l/m 0 min 0 min 5 W/m 9,7 km/h (2 Bft) 98,28 %
02.04.2023 20:08 6,6 C 5,6 C 2,2 C 74 % 1026,8 hPa 0,0 l/m 0 min 0 min 5 W/m 6,4 km/h (2 Bft) 100,00 %
02.04.2023 20:10 6,6 C 5,6 C 2,2 C 75 % 1026,8 hPa 0,0 l/m 0 min 0 min 2 W/m 6,4 km/h (2 Bft) 97,87 %
02.04.2023 20:12 6,5 C 5,6 C 2,2 C 75 % 1026,9 hPa 0,0 l/m 0 min 0 min 0 W/m 6,4 km/h (2 Bft) 100,00 %
02.04.2023 20:14 6,4 C 5,0 C 2,2 C 75 % 1027,0 hPa 0,0 l/m 0 min 0 min 0 W/m 6,4 km/h (2 Bft) 97,87 %
02.04.2023 20:16 6,4 C 5,0 C 2,2 C 75 % 1027,0 hPa 0,0 l/m 0 min 0 min 0 W/m 6,4 km/h (2 Bft) 97,87 %
02.04.2023 20:18 6,3 C 5,0 C 1,7 C 75 % 1027,0 hPa 0,0 l/m 0 min 0 min 0 W/m 9,7 km/h (2 Bft) 97,87 %
02.04.2023 20:20 6,3 C 5,0 C 1,7 C 76 % 1027,1 hPa 0,0 l/m 0 min 0 min 0 W/m 6,4 km/h (2 Bft) 100,00 %
02.04.2023 20:22 6,2 C 5,0 C 1,7 C 76 % 1027,2 hPa 0,0 l/m 0 min 0 min 0 W/m 9,7 km/h (2 Bft) 95,74 %
02.04.2023 20:24 6,2 C 5,0 C 1,7 C 76 % 1027,1 hPa 0,0 l/m 0 min 0 min 0 W/m 12,9 km/h (3 Bft) 95,74 %
02.04.2023 20:26 6,1 C 5,0 C 1,7 C 76 % 1027,2 hPa 0,0 l/m 0 min 0 min 0 W/m 12,9 km/h (3 Bft) 95,74 %
02.04.2023 20:28 6,1 C 5,0 C 1,7 C 77 % 1027,2 hPa 0,0 l/m 0 min 0 min 0 W/m 6,4 km/h (2 Bft) 97,87 %
02.04.2023 20:30 6,1 C 5,0 C 1,7 C 77 % 1027,2 hPa 0,0 l/m 0 min 0 min 0 W/m 6,4 km/h (2 Bft) 95,74 %
02.04.2023 20:32 6,0 C 5,0 C 1,7 C 77 % 1027,2 hPa 0,0 l/m 0 min 0 min 0 W/m 12,9 km/h (3 Bft) 95,74 %
02.04.2023 20:34 5,9 C 5,0 C 1,7 C 77 % 1027,3 hPa 0,0 l/m 0 min 0 min 0 W/m 6,4 km/h (2 Bft) 95,65 %
02.04.2023 20:36 5,9 C 5,0 C 1,7 C 77 % 1027,3 hPa 0,0 l/m 0 min 0 min 0 W/m 6,4 km/h (2 Bft) 91,49 %
02.04.2023 20:38 5,8 C 5,0 C 1,7 C 77 % 1027,3 hPa 0,0 l/m 0 min 0 min 0 W/m 6,4 km/h (2 Bft) 95,74 %
02.04.2023 20:40 5,8 C 5,0 C 1,7 C 77 % 1027,4 hPa 0,0 l/m 0 min 0 min 0 W/m 9,7 km/h (2 Bft) 91,49 %
02.04.2023 20:42 5,8 C 5,0 C 1,7 C 77 % 1027,4 hPa 0,0 l/m 0 min 0 min 0 W/m 9,7 km/h (2 Bft) 95,74 %
02.04.2023 20:44 5,8 C 5,0 C 1,7 C 78 % 1027,5 hPa 0,0 l/m 0 min 0 min 0 W/m 9,7 km/h (2 Bft) 95,74 %
02.04.2023 20:46 5,7 C 5,0 C 1,7 C 78 % 1027,5 hPa 0,0 l/m 0 min 0 min 0 W/m 12,9 km/h (3 Bft) 95,74 %
02.04.2023 20:48 5,7 C 5,0 C 1,7 C 78 % 1027,5 hPa 0,0 l/m 0 min 0 min 0 W/m 3,2 km/h (1 Bft) 95,65 %
02.04.2023 20:50 5,7 C 4,4 C 1,7 C 78 % 1027,5 hPa 0,0 l/m 0 min 0 min 0 W/m 6,4 km/h (2 Bft) 97,87 %
02.04.2023 20:52 5,7 C 4,4 C 1,7 C 78 % 1027,6 hPa 0,0 l/m 0 min 0 min 0 W/m 9,7 km/h (2 Bft) 94,00 %
02.04.2023 20:54 5,6 C 4,4 C 1,7 C 78 % 1027,6 hPa 0,0 l/m 0 min 0 min 0 W/m 6,4 km/h (2 Bft) 95,83 %
02.04.2023 20:56 5,6 C 4,4 C 1,7 C 79 % 1027,6 hPa 0,0 l/m 0 min 0 min 0 W/m 9,7 km/h (2 Bft) 95,74 %
02.04.2023 20:58 5,6 C 4,4 C 1,7 C 79 % 1027,6 hPa 0,0 l/m 0 min 0 min 0 W/m 3,2 km/h (1 Bft) 95,74 %
02.04.2023 21:00 5,6 C 4,4 C 1,1 C 79 % 1027,7 hPa 0,0 l/m 0 min 0 min 0 W/m 3,2 km/h (1 Bft) 87,23 %
02.04.2023 21:02 5,5 C 4,4 C 1,1 C 79 % 1027,7 hPa 0,0 l/m 0 min 0 min 0 W/m 3,2 km/h (1 Bft) 91,43 %
02.04.2023 21:04 5,5 C 3,9 C 1,1 C 79 % 1027,8 hPa 0,0 l/m 0 min 0 min 0 W/m 6,4 km/h (2 Bft) 94,83 %
02.04.2023 21:06 5,4 C 3,9 C 1,1 C 79 % 1027,8 hPa 0,0 l/m 0 min 0 min 0 W/m 6,4 km/h (2 Bft) 89,36 %
02.04.2023 21:08 5,3 C 3,9 C 1,1 C 79 % 1027,8 hPa 0,0 l/m 0 min 0 min 0 W/m 6,4 km/h (2 Bft) 95,74 %
02.04.2023 21:10 5,3 C 3,9 C 1,1 C 79 % 1027,8 hPa 0,0 l/m 0 min 0 min 0 W/m 6,4 km/h (2 Bft) 94,29 %
02.04.2023 21:12 5,3 C 3,9 C 1,1 C 80 % 1027,8 hPa 0,0 l/m 0 min 0 min 0 W/m 6,4 km/h (2 Bft) 93,62 %
02.04.2023 21:14 5,2 C 3,9 C 1,1 C 80 % 1027,9 hPa 0,0 l/m 0 min 0 min 0 W/m 3,2 km/h (1 Bft) 93,62 %
02.04.2023 21:16 5,2 C 3,9 C 1,1 C 80 % 1027,9 hPa 0,0 l/m 0 min 0 min 0 W/m 6,4 km/h (2 Bft) 95,74 %
02.04.2023 21:18 5,2 C 3,9 C 1,1 C 80 % 1027,9 hPa 0,0 l/m 0 min 0 min 0 W/m 6,4 km/h (2 Bft) 93,62 %
02.04.2023 21:20 5,2 C 3,9 C 1,1 C 80 % 1027,9 hPa 0,0 l/m 0 min 0 min 0 W/m 6,4 km/h (2 Bft) 96,30 %
02.04.2023 21:22 5,1 C 3,9 C 1,1 C 80 % 1028,0 hPa 0,0 l/m 0 min 0 min 0 W/m 6,4 km/h (2 Bft) 93,62 %
02.04.2023 21:24 5,1 C 3,9 C 1,1 C 80 % 1027,9 hPa 0,0 l/m 0 min 0 min 0 W/m 0,0 km/h (0 Bft) 91,84 %
02.04.2023 21:26 5,1 C 3,9 C 1,1 C 80 % 1027,9 hPa 0,0 l/m 0 min 0 min 0 W/m 3,2 km/h (1 Bft) 95,65 %
02.04.2023 21:28 5,1 C 3,9 C 1,1 C 80 % 1028,0 hPa 0,0 l/m 0 min 0 min 0 W/m 3,2 km/h (1 Bft) 95,74 %
02.04.2023 21:30 5,0 C 3,9 C 0,6 C 80 % 1028,0 hPa 0,0 l/m 0 min 0 min 0 W/m 3,2 km/h (1 Bft) 95,83 %
02.04.2023 21:32 4,9 C 3,3 C 0,6 C 80 % 1028,0 hPa 0,0 l/m 0 min 0 min 0 W/m 3,2 km/h (1 Bft) 97,87 %
02.04.2023 21:34 4,9 C 3,3 C 0,6 C 80 % 1028,0 hPa 0,0 l/m 0 min 0 min 0 W/m 6,4 km/h (2 Bft) 100,00 %
02.04.2023 21:36 4,9 C 3,3 C 0,6 C 81 % 1028,0 hPa 0,0 l/m 0 min 0 min 0 W/m 3,2 km/h (1 Bft) 97,87 %
02.04.2023 21:38 4,8 C 3,3 C 0,6 C 81 % 1028,0 hPa 0,0 l/m 0 min 0 min 0 W/m 3,2 km/h (1 Bft) 100,00 %
02.04.2023 21:40 4,7 C 3,3 C 0,6 C 81 % 1028,1 hPa 0,0 l/m 0 min 0 min 0 W/m 3,2 km/h (1 Bft) 100,00 %
02.04.2023 21:42 4,7 C 3,3 C 0,6 C 81 % 1028,1 hPa 0,0 l/m 0 min 0 min 0 W/m 3,2 km/h (1 Bft) 95,74 %
02.04.2023 21:44 4,7 C 3,3 C 0,6 C 81 % 1028,1 hPa 0,0 l/m 0 min 0 min 0 W/m 3,2 km/h (1 Bft) 100,00 %
02.04.2023 21:46 4,6 C 3,3 C 0,0 C 81 % 1028,1 hPa 0,0 l/m 0 min 0 min 0 W/m 3,2 km/h (1 Bft) 100,00 %
02.04.2023 21:48 4,6 C 2,8 C 0,0 C 81 % 1028,2 hPa 0,0 l/m 0 min 0 min 0 W/m 0,0 km/h (0 Bft) 97,87 %
02.04.2023 21:50 4,6 C 2,8 C 0,0 C 81 % 1028,2 hPa 0,0 l/m 0 min 0 min 0 W/m 0,0 km/h (0 Bft) 100,00 %
02.04.2023 21:52 4,6 C 2,8 C 0,0 C 81 % 1028,2 hPa 0,0 l/m 0 min 0 min 0 W/m 0,0 km/h (0 Bft) 100,00 %
02.04.2023 21:54 4,5 C 2,8 C 0,0 C 81 % 1028,2 hPa 0,0 l/m 0 min 0 min 0 W/m 3,2 km/h (1 Bft) 95,74 %
02.04.2023 21:56 4,4 C 2,8 C 0,0 C 81 % 1028,2 hPa 0,0 l/m 0 min 0 min 0 W/m 0,0 km/h (0 Bft) 97,87 %
02.04.2023 21:58 4,4 C 2,8 C 0,0 C 81 % 1028,3 hPa 0,0 l/m 0 min 0 min 0 W/m 0,0 km/h (0 Bft) 97,83 %
02.04.2023 22:00 4,4 C 2,8 C 0,0 C 82 % 1028,3 hPa 0,0 l/m 0 min 0 min 0 W/m 0,0 km/h (0 Bft) 91,49 %
02.04.2023 22:02 4,3 C 2,8 C 0,0 C 82 % 1028,3 hPa 0,0 l/m 0 min 0 min 0 W/m 0,0 km/h (0 Bft) 97,87 %
02.04.2023 22:04 4,3 C 2,8 C 0,0 C 82 % 1028,3 hPa 0,0 l/m 0 min 0 min 0 W/m 0,0 km/h (0 Bft) 97,87 %
02.04.2023 22:06 4,3 C 2,2 C 0,0 C 82 % 1028,4 hPa 0,0 l/m 0 min 0 min 0 W/m 0,0 km/h (0 Bft) 97,87 %
02.04.2023 22:08 4,3 C 2,2 C -0,6 C 82 % 1028,4 hPa 0,0 l/m 0 min 0 min 0 W/m 0,0 km/h (0 Bft) 95,74 %
02.04.2023 22:10 4,2 C 2,2 C -0,6 C 82 % 1028,4 hPa 0,0 l/m 0 min 0 min 0 W/m 0,0 km/h (0 Bft) 97,87 %
02.04.2023 22:12 4,2 C 2,2 C -0,6 C 82 % 1028,4 hPa 0,0 l/m 0 min 0 min 0 W/m 0,0 km/h (0 Bft) 97,83 %
02.04.2023 22:14 4,1 C 2,2 C -0,6 C 82 % 1028,4 hPa 0,0 l/m 0 min 0 min 0 W/m 0,0 km/h (0 Bft) 97,87 %
02.04.2023 22:16 4,1 C 2,2 C -0,6 C 82 % 1028,4 hPa 0,0 l/m 0 min 0 min 0 W/m 0,0 km/h (0 Bft) 93,62 %
02.04.2023 22:18 4,1 C 2,2 C -0,6 C 82 % 1028,5 hPa 0,0 l/m 0 min 0 min 0 W/m 0,0 km/h (0 Bft) 97,87 %
02.04.2023 22:20 4,0 C 2,2 C -0,6 C 82 % 1028,5 hPa 0,0 l/m 0 min 0 min 0 W/m 0,0 km/h (0 Bft) 95,74 %
02.04.2023 22:22 3,9 C 1,7 C -0,6 C 82 % 1028,5 hPa 0,0 l/m 0 min 0 min 0 W/m 0,0 km/h (0 Bft) 95,74 %
02.04.2023 22:24 3,9 C 1,7 C -1,1 C 83 % 1028,5 hPa 0,0 l/m 0 min 0 min 0 W/m 0,0 km/h (0 Bft) 97,83 %
02.04.2023 22:26 3,9 C 1,7 C -1,1 C 83 % 1028,6 hPa 0,0 l/m 0 min 0 min 0 W/m 0,0 km/h (0 Bft) 97,87 %
02.04.2023 22:28 3,8 C 1,7 C -1,1 C 83 % 1028,6 hPa 0,0 l/m 0 min 0 min 0 W/m 0,0 km/h (0 Bft) 97,87 %
02.04.2023 22:30 3,8 C 1,7 C -1,1 C 83 % 1028,6 hPa 0,0 l/m 0 min 0 min 0 W/m 0,0 km/h (0 Bft) 97,87 %
02.04.2023 22:32 3,8 C 1,7 C -1,1 C 83 % 1028,6 hPa 0,0 l/m 0 min 0 min 0 W/m 0,0 km/h (0 Bft) 100,00 %
02.04.2023 22:34 3,7 C 1,7 C -1,1 C 83 % 1028,7 hPa 0,0 l/m 0 min 0 min 0 W/m 0,0 km/h (0 Bft) 100,00 %
02.04.2023 22:36 3,7 C 1,7 C -1,1 C 83 % 1028,7 hPa 0,0 l/m 0 min 0 min 0 W/m 0,0 km/h (0 Bft) 97,87 %
02.04.2023 22:38 3,6 C 1,7 C -1,1 C 83 % 1028,7 hPa 0,0 l/m 0 min 0 min 0 W/m 0,0 km/h (0 Bft) 100,00 %
02.04.2023 22:40 3,6 C 1,7 C -1,1 C 83 % 1028,7 hPa 0,0 l/m 0 min 0 min 0 W/m 0,0 km/h (0 Bft) 95,74 %
02.04.2023 22:42 3,6 C 1,7 C -1,1 C 84 % 1028,8 hPa 0,0 l/m 0 min 0 min 0 W/m 0,0 km/h (0 Bft) 100,00 %
02.04.2023 22:44 3,5 C 1,7 C -1,1 C 84 % 1028,7 hPa 0,0 l/m 0 min 0 min 0 W/m 0,0 km/h (0 Bft) 100,00 %
02.04.2023 22:46 3,4 C 1,1 C -1,1 C 84 % 1028,7 hPa 0,0 l/m 0 min 0 min 0 W/m 0,0 km/h (0 Bft) 100,00 %
02.04.2023 22:48 3,4 C 1,1 C -1,1 C 84 % 1028,8 hPa 0,0 l/m 0 min 0 min 0 W/m 0,0 km/h (0 Bft) 95,74 %
02.04.2023 22:50 3,3 C 1,1 C -1,1 C 84 % 1028,8 hPa 0,0 l/m 0 min 0 min 0 W/m 0,0 km/h (0 Bft) 97,87 %
02.04.2023 22:52 3,3 C 1,1 C -1,1 C 84 % 1028,8 hPa 0,0 l/m 0 min 0 min 0 W/m 0,0 km/h (0 Bft) 97,92 %
02.04.2023 22:54 3,3 C 1,1 C -1,1 C 84 % 1028,9 hPa 0,0 l/m 0 min 0 min 0 W/m 0,0 km/h (0 Bft) 98,11 %
02.04.2023 22:56 3,2 C 1,1 C -1,1 C 84 % 1028,9 hPa 0,0 l/m 0 min 0 min 0 W/m 0,0 km/h (0 Bft) 97,87 %
02.04.2023 22:58 3,2 C 1,1 C -1,1 C 84 % 1028,9 hPa 0,0 l/m 0 min 0 min 0 W/m 0,0 km/h (0 Bft) 97,87 %
02.04.2023 23:00 3,1 C 1,1 C -1,7 C 85 % 1028,9 hPa 0,0 l/m 0 min 0 min 0 W/m 0,0 km/h (0 Bft) 97,87 %
02.04.2023 23:02 3,1 C 1,1 C -1,7 C 85 % 1028,9 hPa 0,0 l/m 0 min 0 min 0 W/m 0,0 km/h (0 Bft) 97,87 %
02.04.2023 23:04 3,1 C 1,1 C -1,7 C 85 % 1028,9 hPa 0,0 l/m 0 min 0 min 0 W/m 0,0 km/h (0 Bft) 97,87 %
02.04.2023 23:06 3,0 C 1,1 C -1,7 C 85 % 1028,9 hPa 0,0 l/m 0 min 0 min 0 W/m 0,0 km/h (0 Bft) 97,83 %
02.04.2023 23:08 2,9 C 1,1 C -1,7 C 85 % 1029,0 hPa 0,0 l/m 0 min 0 min 0 W/m 0,0 km/h (0 Bft) 93,62 %
02.04.2023 23:10 2,9 C 1,1 C -1,7 C 85 % 1029,0 hPa 0,0 l/m 0 min 0 min 0 W/m 0,0 km/h (0 Bft) 97,87 %
02.04.2023 23:12 2,9 C 1,1 C -1,7 C 85 % 1029,0 hPa 0,0 l/m 0 min 0 min 0 W/m 0,0 km/h (0 Bft) 95,74 %
02.04.2023 23:14 2,8 C 1,1 C -1,7 C 85 % 1029,0 hPa 0,0 l/m 0 min 0 min 0 W/m 0,0 km/h (0 Bft) 100,00 %
02.04.2023 23:16 2,8 C 1,1 C -1,7 C 86 % 1029,0 hPa 0,0 l/m 0 min 0 min 0 W/m 0,0 km/h (0 Bft) 100,00 %
02.04.2023 23:18 2,8 C 1,1 C -1,7 C 86 % 1029,1 hPa 0,0 l/m 0 min 0 min 0 W/m 0,0 km/h (0 Bft) 97,87 %
02.04.2023 23:20 2,7 C 1,1 C -1,7 C 86 % 1029,1 hPa 0,0 l/m 0 min 0 min 0 W/m 3,2 km/h (1 Bft) 100,00 %
02.04.2023 23:22 2,7 C 1,1 C -1,7 C 86 % 1029,1 hPa 0,0 l/m 0 min 0 min 0 W/m 0,0 km/h (0 Bft) 100,00 %
02.04.2023 23:24 2,7 C 1,1 C -1,7 C 86 % 1029,1 hPa 0,0 l/m 0 min 0 min 0 W/m 0,0 km/h (0 Bft) 97,87 %
02.04.2023 23:26 2,6 C 1,1 C -1,7 C 86 % 1029,1 hPa 0,0 l/m 0 min 0 min 0 W/m 0,0 km/h (0 Bft) 100,00 %
02.04.2023 23:28 2,6 C 1,1 C -1,7 C 86 % 1029,1 hPa 0,0 l/m 0 min 0 min 0 W/m 0,0 km/h (0 Bft) 100,00 %
02.04.2023 23:30 2,6 C 1,1 C -1,7 C 86 % 1029,1 hPa 0,0 l/m 0 min 0 min 0 W/m 0,0 km/h (0 Bft) 100,00 %
02.04.2023 23:32 2,5 C 0,6 C -1,7 C 87 % 1029,1 hPa 0,0 l/m 0 min 0 min 0 W/m 0,0 km/h (0 Bft) 95,74 %
02.04.2023 23:34 2,4 C 1,1 C -1,7 C 87 % 1029,1 hPa 0,0 l/m 0 min 0 min 0 W/m 0,0 km/h (0 Bft) 97,83 %
02.04.2023 23:36 2,4 C 1,1 C -1,7 C 87 % 1029,1 hPa 0,0 l/m 0 min 0 min 0 W/m 0,0 km/h (0 Bft) 97,87 %
02.04.2023 23:38 2,4 C 0,6 C -1,7 C 86 % 1029,1 hPa 0,0 l/m 0 min 0 min 0 W/m 0,0 km/h (0 Bft) 95,74 %
02.04.2023 23:40 2,3 C 0,6 C -1,7 C 86 % 1029,1 hPa 0,0 l/m 0 min 0 min 0 W/m 0,0 km/h (0 Bft) 97,87 %
02.04.2023 23:42 2,3 C 0,6 C -1,7 C 87 % 1029,2 hPa 0,0 l/m 0 min 0 min 0 W/m 0,0 km/h (0 Bft) 97,87 %
02.04.2023 23:44 2,3 C 0,6 C -1,7 C 87 % 1029,2 hPa 0,0 l/m 0 min 0 min 0 W/m 0,0 km/h (0 Bft) 97,87 %
02.04.2023 23:46 2,2 C 0,6 C -1,7 C 87 % 1029,2 hPa 0,0 l/m 0 min 0 min 0 W/m 0,0 km/h (0 Bft) 97,83 %
02.04.2023 23:48 2,2 C 0,6 C -1,7 C 87 % 1029,2 hPa 0,0 l/m 0 min 0 min 0 W/m 0,0 km/h (0 Bft) 95,74 %
02.04.2023 23:50 2,2 C 0,6 C -1,7 C 87 % 1029,2 hPa 0,0 l/m 0 min 0 min 0 W/m 0,0 km/h (0 Bft) 97,87 %
02.04.2023 23:52 2,2 C 0,6 C -1,7 C 87 % 1029,3 hPa 0,0 l/m 0 min 0 min 0 W/m 0,0 km/h (0 Bft) 97,87 %
02.04.2023 23:54 2,1 C 0,6 C -1,7 C 87 % 1029,3 hPa 0,0 l/m 0 min 0 min 0 W/m 0,0 km/h (0 Bft) 97,87 %
02.04.2023 23:56 2,1 C 0,6 C -1,7 C 87 % 1029,3 hPa 0,0 l/m 0 min 0 min 0 W/m 0,0 km/h (0 Bft) 97,87 %
02.04.2023 23:58 2,1 C 0,6 C -1,7 C 87 % 1029,3 hPa 0,0 l/m 0 min 0 min 0 W/m 0,0 km/h (0 Bft) 97,87 %
_ Min-Zeit 23:54 23:32 23:00 18:30 00:00 - - - - 21:24 00:02
Minimum _ 2,1 C 0,6 C -1,7 C 70 % 1006,4 hPa - - - - 0,0 km/h (0 Bft) 14,29 %
_ Max-Zeit 18:28 16:20 00:00 00:00 23:52 00:46 18:12 00:30 17:18 06:28 00:00
Maximum _ 9,0 C 13,9 C 5,6 C 98 % 1029,3 hPa 0,2 l/m 4 min 2 min 597 W/m 41,8 km/h
O-SO (6 Bft)
100,00 %
Durchschnitt _ 6,0 C 6,1 C 2,9 C 87 % 1019,4 hPa #0,4 l/m #2:53 h #14 min. 186 W/m 17,3 km/h (3 Bft) 94,55 %
© 2023 W. Hausmann